VIR8Y KLAX-EGLL

Flight info

Callsign VIR8Y
Flight time 10h 21m
Altitude 33000
Route DOTSS2 CLEEE DCT PKE J96 DRK DCT ABQ DCT ACH DCT WASBI DCT TCC/N0492F350 DCT PNH DCT SLN DCT KP63E DCT KP03I DCT KP12K DCT YSP DCT ANTUR DCT YKQ DCT AGLOL/N0497F370 DCT MCKEE DCT LAKES DCT IRBIM/M085F370 DCT SAVRY DCT 61N050W 61N040W 60N030W 5830N02000W DCT AGORI/N0485F370 DCT OSBOX DCT MIMKU DCT KELLY L10 WAL UY53 NUGRA
Aircraft A35K/H-SDE2E3GHIJ3J4J5LM1ORWXY/LB1D1

Departure

Time 2026-04-23 03:37
Airport Los Angeles International Airport (KLAX)

Arrival

Time 2026-04-23 13:59
Airport London Heathrow Airport (EGLL)
Time Latitude Longitude Altitude Speed Heading
2026-04-23 03:16 33.94177 -118.41095 98 ft 0 kts 83°
2026-04-23 03:23 33.94175 -118.41118 100 ft 4 kts 83°
2026-04-23 03:23 33.94172 -118.41150 100 ft 4 kts 83°
2026-04-23 03:23 33.94170 -118.41176 98 ft 4 kts 98°
2026-04-23 03:23 33.94180 -118.41202 98 ft 4 kts 149°
2026-04-23 03:24 33.94203 -118.41211 101 ft 4 kts 173°
2026-04-23 03:24 33.94230 -118.41215 100 ft 3 kts 173°
2026-04-23 03:24 33.94233 -118.41215 98 ft 0 kts 173°
2026-04-23 03:28 33.94232 -118.41215 98 ft 1 kts 173°
2026-04-23 03:28 33.94211 -118.41212 100 ft 5 kts 172°
2026-04-23 03:28 33.94173 -118.41205 101 ft 6 kts 173°
2026-04-23 03:28 33.94125 -118.41199 102 ft 8 kts 173°
2026-04-23 03:29 33.94067 -118.41190 99 ft 9 kts 173°
2026-04-23 03:29 33.93999 -118.41181 99 ft 10 kts 173°
2026-04-23 03:29 33.93923 -118.41170 99 ft 12 kts 173°
2026-04-23 03:29 33.93839 -118.41158 102 ft 13 kts 173°
2026-04-23 03:30 33.93773 -118.41106 100 ft 11 kts 110°
2026-04-23 03:30 33.93775 -118.41013 99 ft 12 kts 83°
2026-04-23 03:30 33.93785 -118.40907 101 ft 13 kts 83°
2026-04-23 03:30 33.93798 -118.40791 103 ft 15 kts 82°
2026-04-23 03:31 33.93811 -118.40665 104 ft 16 kts 83°
2026-04-23 03:31 33.93825 -118.40527 103 ft 17 kts 83°
2026-04-23 03:31 33.93840 -118.40383 103 ft 18 kts 83°
2026-04-23 03:31 33.93855 -118.40230 104 ft 19 kts 83°
2026-04-23 03:32 33.93872 -118.40069 102 ft 20 kts 83°
2026-04-23 03:32 33.93889 -118.39899 102 ft 21 kts 83°
2026-04-23 03:32 33.93907 -118.39716 101 ft 23 kts 83°
2026-04-23 03:32 33.93927 -118.39528 102 ft 23 kts 82°
2026-04-23 03:33 33.93947 -118.39332 99 ft 24 kts 83°
2026-04-23 03:33 33.93968 -118.39126 102 ft 25 kts 83°
2026-04-23 03:33 33.93987 -118.38940 100 ft 22 kts 83°
2026-04-23 03:33 33.94006 -118.38755 100 ft 22 kts 83°
2026-04-23 03:34 33.94025 -118.38570 103 ft 23 kts 83°
2026-04-23 03:34 33.94045 -118.38379 101 ft 23 kts 83°
2026-04-23 03:34 33.94063 -118.38196 100 ft 20 kts 83°
2026-04-23 03:34 33.94075 -118.38080 100 ft 8 kts 83°
2026-04-23 03:35 33.94077 -118.38064 99 ft 2 kts 83°
2026-04-23 03:35 33.94076 -118.38044 100 ft 3 kts 95°
2026-04-23 03:35 33.94071 -118.38031 99 ft 3 kts 120°
2026-04-23 03:35 33.94035 -118.38003 101 ft 10 kts 156°
2026-04-23 03:36 33.93991 -118.38003 101 ft 3 kts 226°
2026-04-23 03:36 33.93983 -118.38039 102 ft 0 kts 260°
2026-04-23 03:36 33.93977 -118.38080 99 ft 16 kts 261°
2026-04-23 03:36 33.93939 -118.38461 105 ft 76 kts 263°
2026-04-23 03:37 33.93850 -118.39323 102 ft 130 kts 263°
2026-04-23 03:37 33.93726 -118.40567 308 ft 156 kts 262°
2026-04-23 03:37 33.93573 -118.41868 832 ft 157 kts 259°
2026-04-23 03:37 33.93381 -118.43178 1385 ft 161 kts 261°
2026-04-23 03:38 33.93204 -118.44558 1734 ft 173 kts 263°
2026-04-23 03:38 33.92953 -118.46030 2026 ft 190 kts 250°
2026-04-23 03:38 33.92216 -118.47459 2239 ft 213 kts 235°
2026-04-23 03:38 33.91244 -118.48924 2492 ft 234 kts 233°
2026-04-23 03:39 33.90173 -118.50492 2833 ft 250 kts 232°
2026-04-23 03:39 33.89014 -118.52106 3345 ft 258 kts 231°
2026-04-23 03:39 33.87821 -118.53756 3922 ft 264 kts 230°
2026-04-23 03:39 33.86442 -118.55236 4525 ft 270 kts 213°
2026-04-23 03:40 33.84678 -118.55936 5148 ft 274 kts 184°
2026-04-23 03:40 33.82770 -118.55710 5753 ft 280 kts 169°
2026-04-23 03:40 33.80857 -118.55180 6385 ft 284 kts 168°
2026-04-23 03:40 33.78927 -118.54623 7043 ft 287 kts 168°
2026-04-23 03:41 33.76972 -118.54071 7714 ft 289 kts 170°
2026-04-23 03:41 33.74995 -118.53525 8351 ft 294 kts 171°
2026-04-23 03:41 33.72986 -118.52976 9011 ft 298 kts 171°
2026-04-23 03:41 33.70996 -118.52171 9604 ft 309 kts 155°
2026-04-23 03:42 33.69365 -118.50448 10148 ft 321 kts 126°
2026-04-23 03:42 33.68369 -118.47980 10447 ft 338 kts 110°
2026-04-23 03:42 33.67585 -118.45235 10701 ft 355 kts 108°
2026-04-23 03:42 33.66779 -118.42352 10962 ft 372 kts 109°
2026-04-23 03:43 33.65921 -118.39360 11224 ft 387 kts 109°
2026-04-23 03:43 33.65017 -118.36244 11476 ft 402 kts 109°
2026-04-23 03:43 33.64444 -118.32919 11681 ft 414 kts 92°
2026-04-23 03:43 33.64387 -118.29411 11959 ft 425 kts 88°
2026-04-23 03:44 33.64416 -118.25837 12374 ft 430 kts 88°
2026-04-23 03:44 33.64440 -118.22231 12835 ft 435 kts 88°
2026-04-23 03:44 33.64454 -118.18623 13289 ft 439 kts 88°
2026-04-23 03:44 33.64460 -118.16134 13596 ft 443 kts 88°
2026-04-23 03:45 33.64464 -118.12417 14020 ft 447 kts 88°
2026-04-23 03:45 33.64464 -118.07452 14580 ft 452 kts 88°
2026-04-23 03:45 33.64462 -118.03671 15012 ft 455 kts 89°
2026-04-23 03:45 33.64457 -117.99854 15404 ft 459 kts 89°
2026-04-23 03:46 33.64453 -117.97265 15683 ft 461 kts 89°
2026-04-23 03:46 33.64447 -117.93454 16099 ft 464 kts 89°
2026-04-23 03:46 33.64438 -117.89576 16556 ft 466 kts 89°
2026-04-23 03:46 33.64427 -117.85666 17002 ft 470 kts 89°
2026-04-23 03:47 33.64429 -117.81727 17427 ft 473 kts 88°
2026-04-23 03:47 33.64766 -117.77802 17907 ft 474 kts 77°
2026-04-23 03:47 33.65462 -117.73917 18377 ft 477 kts 75°
2026-04-23 03:47 33.66223 -117.70020 18731 ft 481 kts 75°
2026-04-23 03:48 33.66991 -117.66097 19134 ft 484 kts 75°
2026-04-23 03:48 33.67758 -117.62146 19550 ft 487 kts 75°
2026-04-23 03:48 33.68524 -117.58170 19976 ft 490 kts 75°
2026-04-23 03:48 33.69293 -117.54170 20391 ft 494 kts 75°
2026-04-23 03:49 33.70065 -117.50141 20814 ft 496 kts 75°
2026-04-23 03:49 33.70837 -117.46093 21224 ft 499 kts 75°
2026-04-23 03:49 33.71616 -117.42008 21577 ft 503 kts 75°
2026-04-23 03:49 33.72398 -117.37891 21961 ft 507 kts 75°
2026-04-23 03:50 33.73181 -117.33757 22382 ft 510 kts 75°
2026-04-23 03:50 33.73971 -117.29585 22821 ft 513 kts 75°
2026-04-23 03:50 33.74734 -117.25378 23232 ft 517 kts 78°
2026-04-23 03:50 33.75085 -117.21062 23603 ft 522 kts 89°
2026-04-23 03:51 33.75052 -117.16752 23968 ft 525 kts 91°
2026-04-23 03:51 33.74952 -117.12354 24406 ft 527 kts 91°
2026-04-23 03:51 33.74849 -117.07934 24799 ft 530 kts 91°
2026-04-23 03:51 33.74748 -117.03496 25180 ft 532 kts 91°
2026-04-23 03:52 33.74649 -116.99031 25529 ft 536 kts 91°
2026-04-23 03:52 33.74550 -116.94547 25903 ft 539 kts 91°
2026-04-23 03:52 33.74450 -116.90036 26294 ft 541 kts 91°
2026-04-23 03:52 33.74347 -116.85508 26655 ft 544 kts 91°
2026-04-23 03:53 33.74243 -116.80939 26986 ft 547 kts 91°
2026-04-23 03:53 33.74137 -116.76359 27335 ft 550 kts 91°
2026-04-23 03:53 33.74029 -116.71751 27653 ft 553 kts 91°
2026-04-23 03:53 33.73919 -116.67120 27987 ft 555 kts 91°
2026-04-23 03:54 33.73807 -116.62468 28277 ft 558 kts 91°
2026-04-23 03:54 33.73695 -116.57863 28549 ft 558 kts 92°
2026-04-23 03:54 33.73578 -116.53189 28786 ft 561 kts 92°
2026-04-23 03:54 33.73459 -116.48494 29092 ft 563 kts 92°
2026-04-23 03:55 33.73338 -116.43780 29505 ft 562 kts 92°
2026-04-23 03:55 33.73216 -116.39085 29940 ft 562 kts 92°
2026-04-23 03:55 33.73092 -116.34387 30309 ft 561 kts 92°
2026-04-23 03:55 33.72966 -116.29691 30500 ft 565 kts 92°
2026-04-23 03:56 33.72837 -116.24959 30738 ft 567 kts 92°
2026-04-23 03:56 33.72706 -116.20218 30968 ft 569 kts 92°
2026-04-23 03:56 33.72573 -116.15457 31196 ft 571 kts 92°
2026-04-23 03:56 33.72497 -116.10686 31421 ft 573 kts 88°
2026-04-23 03:57 33.72917 -116.05985 31616 ft 573 kts 76°
2026-04-23 03:57 33.73932 -116.01363 31885 ft 571 kts 70°
2026-04-23 03:57 33.75123 -115.96807 32139 ft 572 kts 69°
2026-04-23 03:57 33.76397 -115.92261 32340 ft 574 kts 68°
2026-04-23 03:58 33.77700 -115.87718 32509 ft 576 kts 68°
2026-04-23 03:58 33.79005 -115.83162 32767 ft 577 kts 68°
2026-04-23 03:58 33.80302 -115.78592 32932 ft 579 kts 68°
2026-04-23 03:58 33.81597 -115.73992 32943 ft 585 kts 68°
2026-04-23 03:59 33.84173 -115.64695 32950 ft 585 kts 68°
2026-04-23 03:59 33.86713 -115.55408 32931 ft 581 kts 69°
2026-04-23 04:00 33.89228 -115.46175 32930 ft 580 kts 69°
2026-04-23 04:00 33.91742 -115.36941 32920 ft 580 kts 69°
2026-04-23 04:01 33.94252 -115.27714 32918 ft 578 kts 69°
2026-04-23 04:01 33.96737 -115.18526 32908 ft 576 kts 69°
2026-04-23 04:02 33.99191 -115.09419 32896 ft 576 kts 69°
2026-04-23 04:02 34.01656 -115.00241 32917 ft 575 kts 69°
2026-04-23 04:03 34.04115 -114.91074 32894 ft 574 kts 69°
2026-04-23 04:03 34.06569 -114.81893 32898 ft 575 kts 69°
2026-04-23 04:04 34.09019 -114.72699 32894 ft 575 kts 69°
2026-04-23 04:04 34.11475 -114.63530 32887 ft 575 kts 69°
2026-04-23 04:05 34.14055 -114.54418 32887 ft 574 kts 68°
2026-04-23 04:05 34.16647 -114.45370 32884 ft 574 kts 68°
2026-04-23 04:06 34.19227 -114.36245 32885 ft 574 kts 69°
2026-04-23 04:06 34.21786 -114.27108 32879 ft 573 kts 69°
2026-04-23 04:07 34.24334 -114.17988 32881 ft 573 kts 69°
2026-04-23 04:07 34.26858 -114.08918 32883 ft 573 kts 69°
2026-04-23 04:08 34.29402 -113.99744 32882 ft 571 kts 69°
2026-04-23 04:08 34.31898 -113.90712 32908 ft 570 kts 69°
2026-04-23 04:09 34.34401 -113.81628 32883 ft 568 kts 69°
2026-04-23 04:09 34.36895 -113.72551 32889 ft 568 kts 69°
2026-04-23 04:10 34.39376 -113.63483 32886 ft 567 kts 69°
2026-04-23 04:10 34.41848 -113.54405 32893 ft 568 kts 70°
2026-04-23 04:11 34.44316 -113.45322 32893 ft 567 kts 70°
2026-04-23 04:11 34.46781 -113.36233 32896 ft 567 kts 70°
2026-04-23 04:12 34.49243 -113.27132 32899 ft 568 kts 70°
2026-04-23 04:12 34.51696 -113.18026 32905 ft 567 kts 70°
2026-04-23 04:13 34.54137 -113.08931 32910 ft 568 kts 70°
2026-04-23 04:13 34.56572 -112.99829 32918 ft 567 kts 70°
2026-04-23 04:14 34.58994 -112.90735 32923 ft 566 kts 70°
2026-04-23 04:14 34.61410 -112.81640 32924 ft 566 kts 70°
2026-04-23 04:15 34.63822 -112.72538 32927 ft 566 kts 70°
2026-04-23 04:16 34.67411 -112.58922 32928 ft 567 kts 70°
2026-04-23 04:16 34.69748 -112.49765 33069 ft 567 kts 75°
2026-04-23 04:17 34.70941 -112.40283 33073 ft 569 kts 83°
2026-04-23 04:17 34.71764 -112.30706 33061 ft 570 kts 84°
2026-04-23 04:18 34.72509 -112.21119 33020 ft 570 kts 84°
2026-04-23 04:18 34.73263 -112.11529 32966 ft 570 kts 84°
2026-04-23 04:19 34.74028 -112.01948 32992 ft 569 kts 84°
2026-04-23 04:19 34.74789 -111.92439 33030 ft 568 kts 84°
2026-04-23 04:20 34.75543 -111.82886 33060 ft 567 kts 84°
2026-04-23 04:20 34.76289 -111.73342 33060 ft 566 kts 84°
2026-04-23 04:21 34.77022 -111.63825 33036 ft 564 kts 84°
2026-04-23 04:21 34.77751 -111.54318 32920 ft 565 kts 84°
2026-04-23 04:22 34.78470 -111.44780 32932 ft 566 kts 84°
2026-04-23 04:22 34.79186 -111.35219 32932 ft 567 kts 84°
2026-04-23 04:23 34.79890 -111.25665 32941 ft 567 kts 84°
2026-04-23 04:23 34.80583 -111.16169 32940 ft 567 kts 84°
2026-04-23 04:24 34.81274 -111.06624 32943 ft 565 kts 84°
2026-04-23 04:24 34.81957 -110.97102 32969 ft 564 kts 84°
2026-04-23 04:25 34.82631 -110.87583 32979 ft 564 kts 84°
2026-04-23 04:25 34.83295 -110.78067 33006 ft 564 kts 85°
2026-04-23 04:26 34.83953 -110.68543 33005 ft 565 kts 85°
2026-04-23 04:26 34.84608 -110.59001 32920 ft 565 kts 85°
2026-04-23 04:27 34.85248 -110.49528 32918 ft 565 kts 85°
2026-04-23 04:27 34.85886 -110.39980 32909 ft 567 kts 85°
2026-04-23 04:28 34.86831 -110.25620 32894 ft 567 kts 85°
2026-04-23 04:28 34.87454 -110.16040 32885 ft 567 kts 85°
2026-04-23 04:29 34.88069 -110.06451 32880 ft 568 kts 85°
2026-04-23 04:29 34.88675 -109.96864 32880 ft 568 kts 85°
2026-04-23 04:30 34.89269 -109.87331 32869 ft 568 kts 85°
2026-04-23 04:30 34.89861 -109.77735 32862 ft 568 kts 85°
2026-04-23 04:31 34.90445 -109.68151 32867 ft 567 kts 85°
2026-04-23 04:31 34.91022 -109.58561 32856 ft 567 kts 85°
2026-04-23 04:32 34.91588 -109.48967 32856 ft 567 kts 85°
2026-04-23 04:32 34.92149 -109.39383 32855 ft 567 kts 85°
2026-04-23 04:33 34.92705 -109.29815 32843 ft 566 kts 86°
2026-04-23 04:33 34.93158 -109.21857 32835 ft 567 kts 86°
2026-04-23 04:34 34.93699 -109.12278 32833 ft 567 kts 86°
2026-04-23 04:34 34.94227 -109.02698 32834 ft 566 kts 86°
2026-04-23 04:35 34.94750 -108.93128 32833 ft 566 kts 86°
2026-04-23 04:35 34.95268 -108.83553 32837 ft 566 kts 86°
2026-04-23 04:36 34.95776 -108.73984 32835 ft 565 kts 86°
2026-04-23 04:36 34.96274 -108.64447 32828 ft 563 kts 86°
2026-04-23 04:37 34.96764 -108.54923 32829 ft 563 kts 86°
2026-04-23 04:37 34.97247 -108.45392 32829 ft 563 kts 86°
2026-04-23 04:38 34.97721 -108.35930 32823 ft 561 kts 86°
2026-04-23 04:38 34.98185 -108.26473 32822 ft 558 kts 86°
2026-04-23 04:39 34.98645 -108.17011 32824 ft 558 kts 86°
2026-04-23 04:39 34.99096 -108.07551 32823 ft 558 kts 86°
2026-04-23 04:40 34.99539 -107.98095 32824 ft 558 kts 86°
2026-04-23 04:40 34.99975 -107.88638 32821 ft 558 kts 86°
2026-04-23 04:41 35.00400 -107.79237 32821 ft 559 kts 86°
2026-04-23 04:41 35.00819 -107.69775 32819 ft 557 kts 87°
2026-04-23 04:42 35.01231 -107.60352 32813 ft 556 kts 87°
2026-04-23 04:42 35.01636 -107.50948 32813 ft 555 kts 87°
2026-04-23 04:43 35.02033 -107.41538 32806 ft 555 kts 87°
2026-04-23 04:43 35.02423 -107.32131 32797 ft 555 kts 87°
2026-04-23 04:44 35.02804 -107.22700 32793 ft 555 kts 87°
2026-04-23 04:44 35.03181 -107.13274 32786 ft 556 kts 87°
2026-04-23 04:45 35.03550 -107.03851 32816 ft 556 kts 88°
2026-04-23 04:45 35.03911 -106.94472 32771 ft 560 kts 87°
2026-04-23 04:46 35.04272 -106.84971 32997 ft 561 kts 88°
2026-04-23 04:46 35.04618 -106.75451 33006 ft 562 kts 87°
2026-04-23 04:47 35.05056 -106.65935 32991 ft 560 kts 87°
2026-04-23 04:47 35.05495 -106.56425 32995 ft 561 kts 87°
2026-04-23 04:48 35.05913 -106.46899 32976 ft 562 kts 87°
2026-04-23 04:48 35.06322 -106.37367 32921 ft 563 kts 87°
2026-04-23 04:49 35.06718 -106.27851 32873 ft 557 kts 87°
2026-04-23 04:49 35.07101 -106.18437 32829 ft 553 kts 88°
2026-04-23 04:50 35.07476 -106.09046 32823 ft 553 kts 88°
2026-04-23 04:50 35.07845 -105.99669 32828 ft 553 kts 88°
2026-04-23 04:51 35.08204 -105.90357 32829 ft 552 kts 88°
2026-04-23 04:51 35.08555 -105.80990 32834 ft 552 kts 88°
2026-04-23 04:52 35.08899 -105.71622 32826 ft 552 kts 88°
2026-04-23 04:52 35.09237 -105.62252 32804 ft 552 kts 88°
2026-04-23 04:53 35.09568 -105.52928 32815 ft 547 kts 88°
2026-04-23 04:53 35.09887 -105.43662 32787 ft 546 kts 88°
2026-04-23 04:54 35.10203 -105.34392 32760 ft 546 kts 88°
2026-04-23 04:54 35.10509 -105.25125 32757 ft 546 kts 88°
2026-04-23 04:55 35.10804 -105.15912 32732 ft 546 kts 88°
2026-04-23 04:55 35.11095 -105.06652 32708 ft 545 kts 88°
2026-04-23 04:56 35.11445 -104.97396 32740 ft 546 kts 87°
2026-04-23 04:56 35.11977 -104.88140 32758 ft 545 kts 86°
2026-04-23 04:57 35.12513 -104.78919 32791 ft 543 kts 87°
2026-04-23 04:57 35.13012 -104.69695 32809 ft 544 kts 87°
2026-04-23 04:58 35.13485 -104.60539 32802 ft 544 kts 87°
2026-04-23 04:58 35.13953 -104.51314 32780 ft 544 kts 87°
2026-04-23 04:59 35.14415 -104.42091 32742 ft 544 kts 87°
2026-04-23 04:59 35.14871 -104.32872 32698 ft 544 kts 87°
2026-04-23 05:00 35.15318 -104.23641 32681 ft 544 kts 87°
2026-04-23 05:00 35.15757 -104.14480 32676 ft 542 kts 88°
2026-04-23 05:01 35.16189 -104.05292 32668 ft 541 kts 88°
2026-04-23 05:01 35.16612 -103.96107 32708 ft 541 kts 88°
2026-04-23 05:02 35.17031 -103.86924 32749 ft 541 kts 88°
2026-04-23 05:02 35.17438 -103.77745 32791 ft 541 kts 88°
2026-04-23 05:03 35.17855 -103.68566 32820 ft 541 kts 88°
2026-04-23 05:03 35.18247 -103.59402 33059 ft 537 kts 88°
2026-04-23 05:04 35.18437 -103.54859 33525 ft 533 kts 88°
2026-04-23 05:04 35.18604 -103.50357 33960 ft 529 kts 89°
2026-04-23 05:04 35.18750 -103.45924 34249 ft 529 kts 88°
2026-04-23 05:04 35.18892 -103.41439 34486 ft 528 kts 88°
2026-04-23 05:05 35.19034 -103.36955 34622 ft 529 kts 88°
2026-04-23 05:05 35.19179 -103.32448 34721 ft 531 kts 88°
2026-04-23 05:05 35.19471 -103.23363 34706 ft 537 kts 88°
2026-04-23 05:06 35.19768 -103.14250 34686 ft 537 kts 88°
2026-04-23 05:06 35.20054 -103.05137 34706 ft 537 kts 88°
2026-04-23 05:07 35.20338 -102.96009 34692 ft 536 kts 88°
2026-04-23 05:07 35.20614 -102.86887 34716 ft 537 kts 88°
2026-04-23 05:08 35.20878 -102.77823 34711 ft 537 kts 88°
2026-04-23 05:08 35.21135 -102.68712 34721 ft 534 kts 88°
2026-04-23 05:09 35.21386 -102.59651 34723 ft 533 kts 89°
2026-04-23 05:09 35.21629 -102.50581 34718 ft 533 kts 89°
2026-04-23 05:10 35.21867 -102.41527 34720 ft 533 kts 89°
2026-04-23 05:10 35.22099 -102.32477 34724 ft 532 kts 89°
2026-04-23 05:11 35.22325 -102.23450 34724 ft 531 kts 89°
2026-04-23 05:11 35.22541 -102.14426 34719 ft 530 kts 89°
2026-04-23 05:12 35.22751 -102.05407 34753 ft 530 kts 89°
2026-04-23 05:12 35.22953 -101.96393 34783 ft 530 kts 89°
2026-04-23 05:13 35.23149 -101.87447 34818 ft 530 kts 89°
2026-04-23 05:14 35.24364 -101.74058 34842 ft 530 kts 71°
2026-04-23 05:14 35.25780 -101.69911 34843 ft 528 kts 60°
2026-04-23 05:14 35.27773 -101.66155 34829 ft 525 kts 49°
2026-04-23 05:15 35.32951 -101.59947 34819 ft 520 kts 39°
2026-04-23 05:15 35.38478 -101.54241 34778 ft 519 kts 37°
2026-04-23 05:16 35.44035 -101.48571 34732 ft 519 kts 38°
2026-04-23 05:16 35.49563 -101.42858 34759 ft 520 kts 38°
2026-04-23 05:17 35.55039 -101.37142 34773 ft 519 kts 38°
2026-04-23 05:17 35.60540 -101.31384 34782 ft 519 kts 38°
2026-04-23 05:18 35.66043 -101.25616 34784 ft 519 kts 39°
2026-04-23 05:18 35.71532 -101.19853 34784 ft 518 kts 39°
2026-04-23 05:19 35.77015 -101.14087 34777 ft 519 kts 38°
2026-04-23 05:19 35.82519 -101.08287 34763 ft 521 kts 38°
2026-04-23 05:20 35.88019 -101.02475 34691 ft 521 kts 39°
2026-04-23 05:20 35.93523 -100.96651 34695 ft 521 kts 39°
2026-04-23 05:21 35.98992 -100.90854 34692 ft 521 kts 38°
2026-04-23 05:21 36.04484 -100.85022 34697 ft 519 kts 39°
2026-04-23 05:22 36.09038 -100.80178 34707 ft 519 kts 39°
2026-04-23 05:22 36.14508 -100.74348 34719 ft 519 kts 39°
2026-04-23 05:23 36.19958 -100.68516 34737 ft 518 kts 39°
2026-04-23 05:23 36.25428 -100.62676 34748 ft 519 kts 39°
2026-04-23 05:24 36.30889 -100.56826 34761 ft 519 kts 39°
2026-04-23 05:24 36.36306 -100.50993 34746 ft 518 kts 39°
2026-04-23 05:25 36.41756 -100.45130 34732 ft 518 kts 39°
2026-04-23 05:25 36.47205 -100.39259 34723 ft 518 kts 39°
2026-04-23 05:26 36.52650 -100.33379 34706 ft 518 kts 39°
2026-04-23 05:26 36.58096 -100.27486 34705 ft 519 kts 39°
2026-04-23 05:27 36.63550 -100.21575 34701 ft 520 kts 39°
2026-04-23 05:27 36.68967 -100.15689 34701 ft 519 kts 38°
2026-04-23 05:28 36.74393 -100.09783 34700 ft 518 kts 39°
2026-04-23 05:28 36.79821 -100.03862 34701 ft 518 kts 39°
2026-04-23 05:29 36.85241 -99.97938 34698 ft 518 kts 39°
2026-04-23 05:29 36.90661 -99.92003 34696 ft 518 kts 39°
2026-04-23 05:30 36.96085 -99.86056 34696 ft 518 kts 39°
2026-04-23 05:30 37.01505 -99.80098 34708 ft 517 kts 39°
2026-04-23 05:31 37.06883 -99.74170 34714 ft 514 kts 39°
2026-04-23 05:31 37.12248 -99.68251 34725 ft 515 kts 39°
2026-04-23 05:32 37.17588 -99.62345 34722 ft 515 kts 39°
2026-04-23 05:32 37.22959 -99.56393 34729 ft 515 kts 39°
2026-04-23 05:33 37.28333 -99.50426 34732 ft 515 kts 39°
2026-04-23 05:33 37.33702 -99.44455 34731 ft 515 kts 39°
2026-04-23 05:34 37.39051 -99.38492 34754 ft 512 kts 39°
2026-04-23 05:34 37.44380 -99.32539 34755 ft 512 kts 39°
2026-04-23 05:35 37.49709 -99.26577 34754 ft 512 kts 39°
2026-04-23 05:35 37.55031 -99.20610 34758 ft 512 kts 39°
2026-04-23 05:36 37.60316 -99.14671 34776 ft 512 kts 39°
2026-04-23 05:36 37.65643 -99.08674 34776 ft 514 kts 39°
2026-04-23 05:37 37.70979 -99.02657 34785 ft 513 kts 39°
2026-04-23 05:37 37.76298 -98.96645 34789 ft 512 kts 39°
2026-04-23 05:38 37.81611 -98.90625 34785 ft 512 kts 39°
2026-04-23 05:38 37.86919 -98.84601 34810 ft 512 kts 39°
2026-04-23 05:39 37.92194 -98.78601 34788 ft 514 kts 39°
2026-04-23 05:39 37.97517 -98.72539 34772 ft 514 kts 39°
2026-04-23 05:40 38.02819 -98.66482 34767 ft 510 kts 39°
2026-04-23 05:40 38.08079 -98.60464 34771 ft 509 kts 39°
2026-04-23 05:41 38.13333 -98.54440 34768 ft 509 kts 39°
2026-04-23 05:41 38.18585 -98.48406 34765 ft 509 kts 39°
2026-04-23 05:42 38.23833 -98.42365 34792 ft 509 kts 39°
2026-04-23 05:42 38.29049 -98.36350 34797 ft 509 kts 39°
2026-04-23 05:43 38.34292 -98.30290 34795 ft 509 kts 40°
2026-04-23 05:43 38.39525 -98.24229 34795 ft 508 kts 39°
2026-04-23 05:44 38.44754 -98.18161 34794 ft 508 kts 39°
2026-04-23 05:44 38.49982 -98.12083 34784 ft 508 kts 39°
2026-04-23 05:45 38.55208 -98.05997 34778 ft 508 kts 40°
2026-04-23 05:45 38.60429 -97.99898 34772 ft 508 kts 39°
2026-04-23 05:46 38.65652 -97.93784 34770 ft 511 kts 40°
2026-04-23 05:46 38.70877 -97.87660 34792 ft 514 kts 40°
2026-04-23 05:47 38.76150 -97.81463 34801 ft 514 kts 40°
2026-04-23 05:47 38.81415 -97.75263 34804 ft 514 kts 40°
2026-04-23 05:48 38.86678 -97.69053 34803 ft 514 kts 40°
2026-04-23 05:48 38.91935 -97.62838 34799 ft 512 kts 40°
2026-04-23 05:49 38.97346 -97.56909 34792 ft 511 kts 36°
2026-04-23 05:49 39.03052 -97.51381 34789 ft 515 kts 35°
2026-04-23 05:50 39.08737 -97.45850 34777 ft 516 kts 36°
2026-04-23 05:50 39.14418 -97.40188 34777 ft 516 kts 36°
2026-04-23 05:51 39.20075 -97.34482 34774 ft 516 kts 36°
2026-04-23 05:51 39.25726 -97.28762 34780 ft 516 kts 36°
2026-04-23 05:52 39.31378 -97.23034 34774 ft 516 kts 36°
2026-04-23 05:52 39.37026 -97.17302 34783 ft 516 kts 36°
2026-04-23 05:53 39.42627 -97.11607 34780 ft 515 kts 36°
2026-04-23 05:53 39.48250 -97.05877 34779 ft 515 kts 36°
2026-04-23 05:54 39.53873 -97.00133 34776 ft 515 kts 36°
2026-04-23 05:54 39.59492 -96.94381 34783 ft 515 kts 36°
2026-04-23 05:55 39.65110 -96.88618 34793 ft 516 kts 36°
2026-04-23 05:55 39.70738 -96.82835 34802 ft 516 kts 37°
2026-04-23 05:56 39.76400 -96.77003 34814 ft 521 kts 37°
2026-04-23 05:56 39.82082 -96.71140 34823 ft 522 kts 37°
2026-04-23 05:57 39.87770 -96.65255 34824 ft 522 kts 37°
2026-04-23 05:57 39.93454 -96.59360 34823 ft 522 kts 37°
2026-04-23 05:58 39.99099 -96.53491 34801 ft 522 kts 37°
2026-04-23 05:58 40.04781 -96.47575 34801 ft 522 kts 37°
2026-04-23 05:59 40.10465 -96.41643 34804 ft 525 kts 38°
2026-04-23 05:59 40.16181 -96.35664 34807 ft 527 kts 38°
2026-04-23 06:00 40.21906 -96.29663 34805 ft 527 kts 38°
2026-04-23 06:00 40.27631 -96.23650 34815 ft 527 kts 38°
2026-04-23 06:01 40.33354 -96.17627 34816 ft 527 kts 38°
2026-04-23 06:01 40.39073 -96.11591 34816 ft 529 kts 38°
2026-04-23 06:02 40.44802 -96.05534 34824 ft 528 kts 38°
2026-04-23 06:02 40.50661 -95.99725 34830 ft 527 kts 29°
2026-04-23 06:03 40.56948 -95.94898 34832 ft 526 kts 28°
2026-04-23 06:03 40.63348 -95.90215 34833 ft 525 kts 27°
2026-04-23 06:04 40.69747 -95.85557 34833 ft 525 kts 27°
2026-04-23 06:04 40.76136 -95.80887 34830 ft 524 kts 28°
2026-04-23 06:05 40.82522 -95.76167 34817 ft 527 kts 28°
2026-04-23 06:05 40.88927 -95.71451 34816 ft 527 kts 27°
2026-04-23 06:06 40.95282 -95.66765 34815 ft 524 kts 27°
2026-04-23 06:06 41.01645 -95.62054 34838 ft 524 kts 27°
2026-04-23 06:07 41.08012 -95.57328 34832 ft 525 kts 27°
2026-04-23 06:07 41.14373 -95.52592 34831 ft 525 kts 28°
2026-04-23 06:08 41.20743 -95.47844 34833 ft 525 kts 28°
2026-04-23 06:08 41.27111 -95.43077 34830 ft 526 kts 28°
2026-04-23 06:09 41.33486 -95.38301 34823 ft 526 kts 28°
2026-04-23 06:09 41.39819 -95.33548 34828 ft 526 kts 28°
2026-04-23 06:10 41.46177 -95.28765 34830 ft 523 kts 28°
2026-04-23 06:10 41.52512 -95.23983 34809 ft 523 kts 28°
2026-04-23 06:11 41.58839 -95.19199 34809 ft 523 kts 28°
2026-04-23 06:11 41.65180 -95.14392 34822 ft 525 kts 28°
2026-04-23 06:12 41.71527 -95.09584 34831 ft 525 kts 28°
2026-04-23 06:12 41.79974 -95.03139 34829 ft 524 kts 28°
2026-04-23 06:13 41.87342 -94.97517 34828 ft 524 kts 28°
2026-04-23 06:13 41.93680 -94.92666 34819 ft 524 kts 28°
2026-04-23 06:14 41.98931 -94.88637 34826 ft 522 kts 28°
2026-04-23 06:14 42.05237 -94.83790 34820 ft 522 kts 28°
2026-04-23 06:15 42.11538 -94.78933 34831 ft 522 kts 28°
2026-04-23 06:15 42.17836 -94.74068 34822 ft 522 kts 28°
2026-04-23 06:16 42.24134 -94.69191 34824 ft 522 kts 28°
2026-04-23 06:16 42.30440 -94.64295 34820 ft 522 kts 28°
2026-04-23 06:17 42.36739 -94.59396 34816 ft 522 kts 28°
2026-04-23 06:17 42.43037 -94.54497 34825 ft 522 kts 28°
2026-04-23 06:18 42.49279 -94.49618 34828 ft 521 kts 28°
2026-04-23 06:18 42.55558 -94.44698 34833 ft 521 kts 28°
2026-04-23 06:19 42.61829 -94.39773 34834 ft 521 kts 28°
2026-04-23 06:19 42.68101 -94.34833 34832 ft 521 kts 28°
2026-04-23 06:20 42.74370 -94.29889 34827 ft 521 kts 28°
2026-04-23 06:20 42.80640 -94.24930 34823 ft 521 kts 28°
2026-04-23 06:21 42.86909 -94.19963 34819 ft 521 kts 28°
2026-04-23 06:21 42.93136 -94.15017 34807 ft 520 kts 28°
2026-04-23 06:22 42.99390 -94.10036 34799 ft 520 kts 28°
2026-04-23 06:22 43.05639 -94.05047 34801 ft 520 kts 28°
2026-04-23 06:23 43.11885 -94.00047 34798 ft 520 kts 28°
2026-04-23 06:23 43.18131 -93.95040 34802 ft 520 kts 28°
2026-04-23 06:24 43.24369 -93.90026 34808 ft 520 kts 28°
2026-04-23 06:24 43.30609 -93.84998 34805 ft 519 kts 28°
2026-04-23 06:25 43.36841 -93.79959 34808 ft 520 kts 28°
2026-04-23 06:25 43.43071 -93.74913 34825 ft 519 kts 28°
2026-04-23 06:26 43.49299 -93.69859 34814 ft 519 kts 28°
2026-04-23 06:26 43.55472 -93.64834 34809 ft 519 kts 28°
2026-04-23 06:27 43.61689 -93.59760 34810 ft 518 kts 28°
2026-04-23 06:27 43.67902 -93.54683 34819 ft 519 kts 28°
2026-04-23 06:28 43.74113 -93.49591 34824 ft 518 kts 28°
2026-04-23 06:28 43.80302 -93.44484 34824 ft 518 kts 28°
2026-04-23 06:29 43.86508 -93.39386 34809 ft 518 kts 28°
2026-04-23 06:29 43.92702 -93.34279 34802 ft 518 kts 29°
2026-04-23 06:30 43.98906 -93.29129 34812 ft 520 kts 29°
2026-04-23 06:30 44.05112 -93.23992 34803 ft 519 kts 29°
2026-04-23 06:31 44.11299 -93.18851 34803 ft 518 kts 29°
2026-04-23 06:31 44.17440 -93.13731 34804 ft 517 kts 29°
2026-04-23 06:32 44.23623 -93.08565 34799 ft 517 kts 29°
2026-04-23 06:32 44.29804 -93.03386 34800 ft 517 kts 29°
2026-04-23 06:33 44.35972 -92.98207 34804 ft 517 kts 29°
2026-04-23 06:33 44.42097 -92.93048 34804 ft 517 kts 29°
2026-04-23 06:34 44.48254 -92.87849 34804 ft 517 kts 29°
2026-04-23 06:34 44.54417 -92.82630 34800 ft 517 kts 29°
2026-04-23 06:35 44.60572 -92.77409 34809 ft 516 kts 29°
2026-04-23 06:35 44.66713 -92.72188 34805 ft 516 kts 29°
2026-04-23 06:36 44.72821 -92.66977 34806 ft 516 kts 29°
2026-04-23 06:36 44.78951 -92.61732 34797 ft 516 kts 29°
2026-04-23 06:37 44.85085 -92.56474 34802 ft 515 kts 29°
2026-04-23 06:37 44.91210 -92.51215 34793 ft 516 kts 29°
2026-04-23 06:38 44.97336 -92.45940 34794 ft 515 kts 29°
2026-04-23 06:38 45.03464 -92.40647 34802 ft 515 kts 29°
2026-04-23 06:39 45.09545 -92.35383 34808 ft 516 kts 29°
2026-04-23 06:39 45.15665 -92.30065 34810 ft 515 kts 29°
2026-04-23 06:40 45.21774 -92.24752 34797 ft 514 kts 29°
2026-04-23 06:40 45.27867 -92.19438 34804 ft 514 kts 29°
2026-04-23 06:41 45.33960 -92.14109 34820 ft 514 kts 29°
2026-04-23 06:41 45.40059 -92.08761 34838 ft 514 kts 29°
2026-04-23 06:42 45.46151 -92.03410 34841 ft 514 kts 29°
2026-04-23 06:42 45.51915 -91.97471 34824 ft 517 kts 39°
2026-04-23 06:43 45.57319 -91.90699 34839 ft 517 kts 40°
2026-04-23 06:43 45.62655 -91.83793 34830 ft 516 kts 40°
2026-04-23 06:44 45.67969 -91.76884 34822 ft 516 kts 40°
2026-04-23 06:44 45.73291 -91.69972 34817 ft 516 kts 40°
2026-04-23 06:45 45.78576 -91.63101 34817 ft 516 kts 40°
2026-04-23 06:45 45.83895 -91.56178 34821 ft 516 kts 40°
2026-04-23 06:46 45.89210 -91.49235 34821 ft 516 kts 40°
2026-04-23 06:46 45.94503 -91.42295 34822 ft 515 kts 40°
2026-04-23 06:47 45.99795 -91.35342 34823 ft 515 kts 40°
2026-04-23 06:47 46.05077 -91.28386 34822 ft 515 kts 40°
2026-04-23 06:48 46.10364 -91.21405 34822 ft 515 kts 40°
2026-04-23 06:48 46.15601 -91.14472 34821 ft 514 kts 39°
2026-04-23 06:49 46.20858 -91.07493 34822 ft 513 kts 39°
2026-04-23 06:49 46.26110 -91.00495 34812 ft 514 kts 39°
2026-04-23 06:50 46.31361 -90.93482 34815 ft 513 kts 40°
2026-04-23 06:50 46.36602 -90.86466 34826 ft 513 kts 40°
2026-04-23 06:51 46.41842 -90.79432 34800 ft 513 kts 39°
2026-04-23 06:51 46.47067 -90.72396 34814 ft 512 kts 39°
2026-04-23 06:52 46.52276 -90.65364 34813 ft 511 kts 39°
2026-04-23 06:52 46.57479 -90.58323 34834 ft 511 kts 39°
2026-04-23 06:53 46.62678 -90.51269 34827 ft 511 kts 39°
2026-04-23 06:53 46.67876 -90.44196 34836 ft 511 kts 39°
2026-04-23 06:54 46.73067 -90.37107 34835 ft 512 kts 39°
2026-04-23 06:54 46.78255 -90.30003 34843 ft 511 kts 39°
2026-04-23 06:55 46.83435 -90.22894 34844 ft 511 kts 39°
2026-04-23 06:55 46.88616 -90.15769 34850 ft 511 kts 39°
2026-04-23 06:56 46.93756 -90.08672 34850 ft 511 kts 39°
2026-04-23 06:56 46.98899 -90.01477 34859 ft 513 kts 42°
2026-04-23 06:57 47.03417 -89.93327 34856 ft 516 kts 48°
2026-04-23 06:57 47.07713 -89.84885 34859 ft 516 kts 49°
2026-04-23 06:58 47.11960 -89.76393 34859 ft 516 kts 49°
2026-04-23 06:58 47.16213 -89.67890 34862 ft 516 kts 49°
2026-04-23 06:59 47.20461 -89.59394 34868 ft 516 kts 49°
2026-04-23 06:59 47.24714 -89.50872 34870 ft 516 kts 49°
2026-04-23 07:00 47.28962 -89.42334 34876 ft 516 kts 49°
2026-04-23 07:00 47.33197 -89.33790 34881 ft 516 kts 49°
2026-04-23 07:01 47.37401 -89.25291 34881 ft 516 kts 49°
2026-04-23 07:01 47.41630 -89.16716 34897 ft 516 kts 49°
2026-04-23 07:02 47.45846 -89.08138 34892 ft 515 kts 49°
2026-04-23 07:02 47.49341 -89.01004 34895 ft 515 kts 49°
2026-04-23 07:03 47.53544 -88.92402 34897 ft 516 kts 49°
2026-04-23 07:03 47.57743 -88.83785 34900 ft 515 kts 49°
2026-04-23 07:04 47.62605 -88.73771 34912 ft 515 kts 49°
2026-04-23 07:04 47.66100 -88.66542 34908 ft 514 kts 49°
2026-04-23 07:05 47.70264 -88.57909 34919 ft 514 kts 49°
2026-04-23 07:05 47.74400 -88.49310 34927 ft 515 kts 49°
2026-04-23 07:06 47.78553 -88.40647 34935 ft 515 kts 50°
2026-04-23 07:06 47.82702 -88.31965 34939 ft 515 kts 50°
2026-04-23 07:07 47.86843 -88.23272 34954 ft 513 kts 49°
2026-04-23 07:07 47.90965 -88.14590 34960 ft 513 kts 49°
2026-04-23 07:08 47.95081 -88.05902 34980 ft 513 kts 49°
2026-04-23 07:08 47.99168 -87.97245 34986 ft 513 kts 49°
2026-04-23 07:09 48.03266 -87.88525 34991 ft 512 kts 49°
2026-04-23 07:09 48.07372 -87.79788 35001 ft 515 kts 49°
2026-04-23 07:10 48.11480 -87.70985 35000 ft 514 kts 49°
2026-04-23 07:10 48.15581 -87.62191 35004 ft 515 kts 49°
2026-04-23 07:11 48.19659 -87.53383 35016 ft 514 kts 50°
2026-04-23 07:12 48.25784 -87.40121 35028 ft 517 kts 48°
2026-04-23 07:12 48.29851 -87.31307 35022 ft 515 kts 48°
2026-04-23 07:13 48.33924 -87.22450 35034 ft 516 kts 48°
2026-04-23 07:13 48.37992 -87.13593 35034 ft 515 kts 49°
2026-04-23 07:14 48.42039 -87.04704 35039 ft 515 kts 49°
2026-04-23 07:14 48.46092 -86.95778 35045 ft 516 kts 49°
2026-04-23 07:15 48.50118 -86.86884 35052 ft 513 kts 48°
2026-04-23 07:15 48.54133 -86.77994 35055 ft 513 kts 49°
2026-04-23 07:16 48.58117 -86.69142 35040 ft 513 kts 49°
2026-04-23 07:16 48.62123 -86.60219 35057 ft 513 kts 49°
2026-04-23 07:17 48.66119 -86.51280 35090 ft 513 kts 48°
2026-04-23 07:17 48.70102 -86.42339 35070 ft 510 kts 48°
2026-04-23 07:18 48.74020 -86.33366 35075 ft 514 kts 52°
2026-04-23 07:18 48.77432 -86.23773 35080 ft 518 kts 55°
2026-04-23 07:19 48.80701 -86.14109 35081 ft 519 kts 56°
2026-04-23 07:19 48.83967 -86.04339 35092 ft 519 kts 56°
2026-04-23 07:20 48.87224 -85.94581 35100 ft 517 kts 55°
2026-04-23 07:20 48.90474 -85.84844 35100 ft 517 kts 55°
2026-04-23 07:21 48.93720 -85.75104 35108 ft 517 kts 56°
2026-04-23 07:21 48.96957 -85.65330 35107 ft 517 kts 56°
2026-04-23 07:22 49.00182 -85.55553 35133 ft 516 kts 55°
2026-04-23 07:22 49.03393 -85.45784 35119 ft 514 kts 55°
2026-04-23 07:23 49.06588 -85.36032 35120 ft 514 kts 55°
2026-04-23 07:23 49.09774 -85.26273 35124 ft 514 kts 56°
2026-04-23 07:24 49.12953 -85.16490 35128 ft 515 kts 56°
2026-04-23 07:24 49.16123 -85.06694 35136 ft 515 kts 56°
2026-04-23 07:25 49.19265 -84.96947 35140 ft 515 kts 56°
2026-04-23 07:25 49.22745 -84.87490 35141 ft 507 kts 50°
2026-04-23 07:26 49.26476 -84.78352 35154 ft 506 kts 49°
2026-04-23 07:26 49.30237 -84.69251 35153 ft 506 kts 49°
2026-04-23 07:27 49.33993 -84.60127 35158 ft 505 kts 49°
2026-04-23 07:27 49.37722 -84.51016 35159 ft 504 kts 49°
2026-04-23 07:28 49.41438 -84.41899 35170 ft 504 kts 49°
2026-04-23 07:28 49.45150 -84.32754 35167 ft 504 kts 49°
2026-04-23 07:29 49.48850 -84.23611 35172 ft 504 kts 49°
2026-04-23 07:29 49.52543 -84.14442 35182 ft 504 kts 49°
2026-04-23 07:30 49.56228 -84.05269 35177 ft 503 kts 49°
2026-04-23 07:30 49.59875 -83.96164 35198 ft 503 kts 49°
2026-04-23 07:31 49.63547 -83.86968 35185 ft 503 kts 49°
2026-04-23 07:31 49.67209 -83.77756 35183 ft 504 kts 49°
2026-04-23 07:32 49.70868 -83.68520 35184 ft 504 kts 49°
2026-04-23 07:32 49.74520 -83.59275 35190 ft 502 kts 49°
2026-04-23 07:33 49.78147 -83.50049 35189 ft 502 kts 49°
2026-04-23 07:33 49.81771 -83.40804 35197 ft 501 kts 49°
2026-04-23 07:34 49.85359 -83.31623 35193 ft 501 kts 49°
2026-04-23 07:34 49.88966 -83.22361 35200 ft 501 kts 49°
2026-04-23 07:35 49.92564 -83.13086 35205 ft 501 kts 49°
2026-04-23 07:35 49.96138 -83.03833 35202 ft 499 kts 49°
2026-04-23 07:36 49.99705 -82.94577 35211 ft 499 kts 48°
2026-04-23 07:36 50.03265 -82.85302 35209 ft 499 kts 48°
2026-04-23 07:37 50.06817 -82.76017 35210 ft 499 kts 49°
2026-04-23 07:37 50.10368 -82.66703 35248 ft 499 kts 49°
2026-04-23 07:38 50.13875 -82.57464 35208 ft 497 kts 48°
2026-04-23 07:38 50.17388 -82.48180 35209 ft 496 kts 48°
2026-04-23 07:39 50.20893 -82.38887 35218 ft 496 kts 48°
2026-04-23 07:39 50.24389 -82.29586 35217 ft 497 kts 48°
2026-04-23 07:40 50.27879 -82.20273 35221 ft 497 kts 48°
2026-04-23 07:40 50.31345 -82.10977 35231 ft 496 kts 48°
2026-04-23 07:41 50.34798 -82.01673 35231 ft 494 kts 48°
2026-04-23 07:41 50.38247 -81.92358 35235 ft 494 kts 48°
2026-04-23 07:42 50.41691 -81.83037 35244 ft 495 kts 48°
2026-04-23 07:42 50.45129 -81.73686 35243 ft 495 kts 48°
2026-04-23 07:43 50.48559 -81.64322 35244 ft 494 kts 48°
2026-04-23 07:43 50.51976 -81.54961 35243 ft 493 kts 48°
2026-04-23 07:44 50.55380 -81.45602 35242 ft 492 kts 48°
2026-04-23 07:44 50.58754 -81.36289 35245 ft 493 kts 48°
2026-04-23 07:45 50.62140 -81.26906 35243 ft 493 kts 48°
2026-04-23 07:45 50.65519 -81.17511 35246 ft 493 kts 48°
2026-04-23 07:46 50.68894 -81.08096 35269 ft 493 kts 48°
2026-04-23 07:46 50.72251 -80.98685 35245 ft 491 kts 48°
2026-04-23 07:47 50.75590 -80.89286 35250 ft 491 kts 48°
2026-04-23 07:47 50.78927 -80.79877 35252 ft 491 kts 48°
2026-04-23 07:48 50.82256 -80.70455 35247 ft 491 kts 48°
2026-04-23 07:48 50.85581 -80.61013 35248 ft 491 kts 49°
2026-04-23 07:49 50.88895 -80.51556 35261 ft 491 kts 48°
2026-04-23 07:49 50.92173 -80.42164 35241 ft 490 kts 48°
2026-04-23 07:50 50.95467 -80.32697 35262 ft 490 kts 48°
2026-04-23 07:50 50.98764 -80.23196 35249 ft 492 kts 48°
2026-04-23 07:51 51.02056 -80.13660 35251 ft 493 kts 48°
2026-04-23 07:51 51.05340 -80.04106 35252 ft 493 kts 49°
2026-04-23 07:52 51.08621 -79.94532 35250 ft 493 kts 49°
2026-04-23 07:52 51.11894 -79.84950 35250 ft 493 kts 49°
2026-04-23 07:53 51.15164 -79.75342 35255 ft 495 kts 49°
2026-04-23 07:53 51.18422 -79.65738 35249 ft 496 kts 49°
2026-04-23 07:54 51.21696 -79.56032 35249 ft 496 kts 49°
2026-04-23 07:54 51.24428 -79.47899 35256 ft 497 kts 49°
2026-04-23 07:55 51.27666 -79.38233 35250 ft 497 kts 49°
2026-04-23 07:55 51.30925 -79.28474 35249 ft 498 kts 49°
2026-04-23 07:56 51.34176 -79.18694 35249 ft 499 kts 50°
2026-04-23 07:56 51.37430 -79.08871 35251 ft 500 kts 50°
2026-04-23 07:57 51.40678 -78.99021 35248 ft 500 kts 50°
2026-04-23 07:57 51.43921 -78.89156 35279 ft 500 kts 51°
2026-04-23 07:58 51.47146 -78.79291 35244 ft 498 kts 51°
2026-04-23 07:58 51.50825 -78.70206 35263 ft 483 kts 42°
2026-04-23 07:59 51.54914 -78.61599 35249 ft 480 kts 41°
2026-04-23 07:59 51.58996 -78.53196 35244 ft 480 kts 41°
2026-04-23 08:00 51.63100 -78.44726 35244 ft 480 kts 41°
2026-04-23 08:00 51.67191 -78.36212 35247 ft 480 kts 41°
2026-04-23 08:01 51.71270 -78.27681 35255 ft 480 kts 43°
2026-04-23 08:01 51.75339 -78.19135 35248 ft 481 kts 44°
2026-04-23 08:02 51.79415 -78.10549 35248 ft 481 kts 44°
2026-04-23 08:02 51.83481 -78.01957 35239 ft 481 kts 44°
2026-04-23 08:03 51.87542 -77.93348 35241 ft 481 kts 44°
2026-04-23 08:03 51.91598 -77.84726 35250 ft 482 kts 44°
2026-04-23 08:04 51.95638 -77.76109 35239 ft 484 kts 45°
2026-04-23 08:04 51.99702 -77.67408 35271 ft 484 kts 45°
2026-04-23 08:05 52.03773 -77.58658 35241 ft 485 kts 45°
2026-04-23 08:05 52.07836 -77.49895 35238 ft 486 kts 45°
2026-04-23 08:06 52.11892 -77.41119 35241 ft 486 kts 46°
2026-04-23 08:06 52.15952 -77.32311 35239 ft 486 kts 46°
2026-04-23 08:07 52.20005 -77.23484 35233 ft 487 kts 46°
2026-04-23 08:07 52.24054 -77.14634 35232 ft 487 kts 46°
2026-04-23 08:08 52.28071 -77.05827 35230 ft 487 kts 46°
2026-04-23 08:08 52.32121 -76.96916 35231 ft 488 kts 47°
2026-04-23 08:09 52.36173 -76.87966 35226 ft 489 kts 47°
2026-04-23 08:09 52.40216 -76.79003 35227 ft 489 kts 47°
2026-04-23 08:10 52.44231 -76.70071 35222 ft 490 kts 47°
2026-04-23 08:10 52.50284 -76.56547 35227 ft 490 kts 48°
2026-04-23 08:11 52.54312 -76.47511 35214 ft 491 kts 48°
2026-04-23 08:11 52.58341 -76.38441 35235 ft 491 kts 49°
2026-04-23 08:12 52.62343 -76.29399 35213 ft 492 kts 49°
2026-04-23 08:12 52.66365 -76.20275 35212 ft 492 kts 49°
2026-04-23 08:13 52.70387 -76.11121 35211 ft 492 kts 49°
2026-04-23 08:13 52.74397 -76.01963 35209 ft 493 kts 49°
2026-04-23 08:14 52.78401 -75.92786 35204 ft 492 kts 49°
2026-04-23 08:14 52.82399 -75.83589 35203 ft 493 kts 49°
2026-04-23 08:15 52.86389 -75.74371 35203 ft 493 kts 49°
2026-04-23 08:15 52.90375 -75.65135 35197 ft 494 kts 50°
2026-04-23 08:16 52.94370 -75.55843 35192 ft 494 kts 50°
2026-04-23 08:16 52.98329 -75.46602 35209 ft 494 kts 51°
2026-04-23 08:17 53.02306 -75.37285 35186 ft 494 kts 51°
2026-04-23 08:17 53.06272 -75.27956 35200 ft 494 kts 51°
2026-04-23 08:18 53.10236 -75.18609 35189 ft 494 kts 51°
2026-04-23 08:18 53.14190 -75.09238 35181 ft 495 kts 51°
2026-04-23 08:19 53.18137 -74.99853 35185 ft 494 kts 52°
2026-04-23 08:19 53.22083 -74.90435 35173 ft 495 kts 52°
2026-04-23 08:20 53.26023 -74.80993 35175 ft 495 kts 52°
2026-04-23 08:20 53.29952 -74.71543 35173 ft 495 kts 52°
2026-04-23 08:21 53.33855 -74.62126 35170 ft 496 kts 53°
2026-04-23 08:21 53.37780 -74.52617 35167 ft 496 kts 53°
2026-04-23 08:22 53.41688 -74.43110 35168 ft 495 kts 53°
2026-04-23 08:22 53.45598 -74.33570 35166 ft 496 kts 53°
2026-04-23 08:23 53.49499 -74.24012 35159 ft 496 kts 54°
2026-04-23 08:23 53.53392 -74.14436 35160 ft 497 kts 54°
2026-04-23 08:24 53.57285 -74.04824 35141 ft 497 kts 54°
2026-04-23 08:24 53.61167 -73.95204 35122 ft 496 kts 54°
2026-04-23 08:25 53.65013 -73.85636 35105 ft 496 kts 54°
2026-04-23 08:25 53.68880 -73.75982 35118 ft 496 kts 54°
2026-04-23 08:26 53.70847 -73.71208 35415 ft 493 kts 51°
2026-04-23 08:26 53.72993 -73.66714 35805 ft 489 kts 49°
2026-04-23 08:26 53.75163 -73.62303 36073 ft 488 kts 49°
2026-04-23 08:26 53.77350 -73.57914 36295 ft 488 kts 49°
2026-04-23 08:27 53.79549 -73.53531 36502 ft 488 kts 49°
2026-04-23 08:27 53.81748 -73.49155 36711 ft 488 kts 49°
2026-04-23 08:27 53.83952 -73.44766 36923 ft 488 kts 49°
2026-04-23 08:27 53.86149 -73.40377 37083 ft 490 kts 49°
2026-04-23 08:28 53.90578 -73.31491 37120 ft 496 kts 49°
2026-04-23 08:28 53.95016 -73.22539 37130 ft 495 kts 49°
2026-04-23 08:29 53.99446 -73.13574 37127 ft 495 kts 49°
2026-04-23 08:29 54.03839 -73.04646 37126 ft 495 kts 49°
2026-04-23 08:30 54.08254 -72.95642 37127 ft 495 kts 49°
2026-04-23 08:30 54.12662 -72.86619 37126 ft 495 kts 50°
2026-04-23 08:31 54.17068 -72.77567 37119 ft 495 kts 50°
2026-04-23 08:31 54.21463 -72.68508 37118 ft 495 kts 50°
2026-04-23 08:32 54.25852 -72.59428 37122 ft 495 kts 50°
2026-04-23 08:32 54.30235 -72.50323 37121 ft 495 kts 51°
2026-04-23 08:33 54.34615 -72.41191 37121 ft 496 kts 51°
2026-04-23 08:33 54.38986 -72.32045 37127 ft 496 kts 51°
2026-04-23 08:34 54.43354 -72.22871 37129 ft 496 kts 51°
2026-04-23 08:34 54.47684 -72.13747 37130 ft 496 kts 51°
2026-04-23 08:35 54.52047 -72.04516 37135 ft 497 kts 51°
2026-04-23 08:35 54.56408 -71.95256 37143 ft 497 kts 52°
2026-04-23 08:36 54.60754 -71.85993 37140 ft 497 kts 52°
2026-04-23 08:36 54.65101 -71.76690 37146 ft 497 kts 52°
2026-04-23 08:37 54.69433 -71.67378 37146 ft 497 kts 52°
2026-04-23 08:37 54.73734 -71.58108 37148 ft 497 kts 52°
2026-04-23 08:38 54.78056 -71.48763 37151 ft 497 kts 52°
2026-04-23 08:38 54.82371 -71.39391 37151 ft 497 kts 52°
2026-04-23 08:39 54.86674 -71.30009 37145 ft 497 kts 52°
2026-04-23 08:39 54.90972 -71.20598 37151 ft 497 kts 53°
2026-04-23 08:40 54.95264 -71.11166 37159 ft 497 kts 53°
2026-04-23 08:40 54.99543 -71.01731 37159 ft 496 kts 53°
2026-04-23 08:41 55.03814 -70.92272 37165 ft 496 kts 53°
2026-04-23 08:41 55.07357 -70.84399 37160 ft 497 kts 53°
2026-04-23 08:42 55.12310 -70.73343 37174 ft 497 kts 54°
2026-04-23 08:42 55.15875 -70.65360 37173 ft 497 kts 54°
2026-04-23 08:43 55.20124 -70.55809 37182 ft 497 kts 54°
2026-04-23 08:43 55.24359 -70.46254 37181 ft 497 kts 54°
2026-04-23 08:44 55.28587 -70.36678 37185 ft 497 kts 54°
2026-04-23 08:44 55.32783 -70.27135 37184 ft 497 kts 55°
2026-04-23 08:45 55.37007 -70.17489 37189 ft 498 kts 55°
2026-04-23 08:45 55.41227 -70.07824 37194 ft 498 kts 55°
2026-04-23 08:46 55.45435 -69.98145 37199 ft 498 kts 55°
2026-04-23 08:46 55.49634 -69.88446 37200 ft 498 kts 56°
2026-04-23 08:47 55.53836 -69.78695 37209 ft 499 kts 56°
2026-04-23 08:47 55.58033 -69.68921 37216 ft 498 kts 56°
2026-04-23 08:48 55.62191 -69.59204 37217 ft 499 kts 56°
2026-04-23 08:48 55.66370 -69.49400 37207 ft 498 kts 56°
2026-04-23 08:49 55.70544 -69.39562 37203 ft 499 kts 56°
2026-04-23 08:49 55.74710 -69.29711 37229 ft 499 kts 57°
2026-04-23 08:50 55.78871 -69.19830 37228 ft 499 kts 57°
2026-04-23 08:50 55.83020 -69.09929 37231 ft 499 kts 57°
2026-04-23 08:51 55.87136 -69.00071 37228 ft 499 kts 57°
2026-04-23 08:51 55.91275 -68.90113 37236 ft 500 kts 58°
2026-04-23 08:52 55.95405 -68.80133 37236 ft 499 kts 58°
2026-04-23 08:52 55.99529 -68.70140 37241 ft 500 kts 58°
2026-04-23 08:53 56.03651 -68.60117 37235 ft 500 kts 58°
2026-04-23 08:53 56.07769 -68.50053 37241 ft 501 kts 58°
2026-04-23 08:54 56.11873 -68.39973 37241 ft 501 kts 59°
2026-04-23 08:54 56.15979 -68.29868 37247 ft 501 kts 59°
2026-04-23 08:55 56.20075 -68.19728 37246 ft 501 kts 59°
2026-04-23 08:55 56.24156 -68.09585 37254 ft 501 kts 59°
2026-04-23 08:56 56.28232 -67.99419 37254 ft 501 kts 59°
2026-04-23 08:56 56.32271 -67.89285 37265 ft 502 kts 59°
2026-04-23 08:57 56.36334 -67.79059 37272 ft 501 kts 59°
2026-04-23 08:57 56.40382 -67.68836 37270 ft 501 kts 59°
2026-04-23 08:58 56.44436 -67.58569 37246 ft 502 kts 60°
2026-04-23 08:58 56.48478 -67.48273 37268 ft 502 kts 60°
2026-04-23 08:59 56.52510 -67.37943 37280 ft 502 kts 60°
2026-04-23 08:59 56.56530 -67.27598 37281 ft 502 kts 61°
2026-04-23 09:00 56.60550 -67.17231 37288 ft 502 kts 61°
2026-04-23 09:00 56.64524 -67.06933 37291 ft 501 kts 61°
2026-04-23 09:01 56.68518 -66.96528 37295 ft 502 kts 61°
2026-04-23 09:01 56.72507 -66.86086 37292 ft 502 kts 61°
2026-04-23 09:02 56.76488 -66.75630 37293 ft 502 kts 61°
2026-04-23 09:02 56.80433 -66.65223 37294 ft 501 kts 61°
2026-04-23 09:03 56.84394 -66.54722 37271 ft 502 kts 62°
2026-04-23 09:03 56.88349 -66.44193 37295 ft 502 kts 62°
2026-04-23 09:04 56.92299 -66.33645 37295 ft 502 kts 62°
2026-04-23 09:04 56.96236 -66.23083 37298 ft 502 kts 63°
2026-04-23 09:05 57.00165 -66.12490 37305 ft 502 kts 63°
2026-04-23 09:05 57.04088 -66.01867 37302 ft 503 kts 63°
2026-04-23 09:06 57.08005 -65.91211 37304 ft 503 kts 63°
2026-04-23 09:06 57.11911 -65.80539 37307 ft 503 kts 63°
2026-04-23 09:07 57.15809 -65.69844 37304 ft 503 kts 63°
2026-04-23 09:07 57.19673 -65.59194 37304 ft 502 kts 63°
2026-04-23 09:08 57.23545 -65.48473 37302 ft 502 kts 64°
2026-04-23 09:08 57.27401 -65.37751 37306 ft 499 kts 64°
2026-04-23 09:09 57.31233 -65.27050 37309 ft 499 kts 64°
2026-04-23 09:09 57.35054 -65.16328 37308 ft 499 kts 64°
2026-04-23 09:10 57.40764 -65.00212 37302 ft 498 kts 64°
2026-04-23 09:11 57.44533 -64.89511 37311 ft 498 kts 64°
2026-04-23 09:11 57.48315 -64.78730 37311 ft 498 kts 65°
2026-04-23 09:12 57.52094 -64.67914 37300 ft 498 kts 65°
2026-04-23 09:12 57.55859 -64.57083 37301 ft 498 kts 65°
2026-04-23 09:13 57.59618 -64.46224 37296 ft 498 kts 65°
2026-04-23 09:13 57.63369 -64.35335 37302 ft 498 kts 65°
2026-04-23 09:14 57.67108 -64.24432 37290 ft 499 kts 65°
2026-04-23 09:14 57.70811 -64.13580 37288 ft 498 kts 65°
2026-04-23 09:15 57.74532 -64.02635 37291 ft 498 kts 65°
2026-04-23 09:15 57.78242 -63.91669 37290 ft 499 kts 65°
2026-04-23 09:16 57.81952 -63.80657 37283 ft 499 kts 65°
2026-04-23 09:16 57.85649 -63.69625 37280 ft 499 kts 66°
2026-04-23 09:17 57.89342 -63.58563 37284 ft 499 kts 66°
2026-04-23 09:17 57.92998 -63.47549 37286 ft 499 kts 66°
2026-04-23 09:18 57.96668 -63.36439 37277 ft 500 kts 65°
2026-04-23 09:18 58.00195 -63.25178 37290 ft 495 kts 71°
2026-04-23 09:19 58.03245 -63.13542 37282 ft 493 kts 72°
2026-04-23 09:19 58.06199 -63.01850 37278 ft 493 kts 72°
2026-04-23 09:20 58.09132 -62.90111 37278 ft 493 kts 72°
2026-04-23 09:20 58.12046 -62.78427 37254 ft 493 kts 72°
2026-04-23 09:21 58.14971 -62.66648 37280 ft 495 kts 72°
2026-04-23 09:21 58.17889 -62.54840 37283 ft 495 kts 72°
2026-04-23 09:22 58.20796 -62.43019 37282 ft 495 kts 72°
2026-04-23 09:22 58.23692 -62.31186 37292 ft 494 kts 72°
2026-04-23 09:23 58.26574 -62.19348 37303 ft 493 kts 72°
2026-04-23 09:23 58.29443 -62.07495 37317 ft 494 kts 73°
2026-04-23 09:24 58.32304 -61.95592 37314 ft 494 kts 73°
2026-04-23 09:24 58.35137 -61.83738 37298 ft 495 kts 73°
2026-04-23 09:25 58.37981 -61.71789 37293 ft 495 kts 73°
2026-04-23 09:25 58.40817 -61.59826 37298 ft 494 kts 73°
2026-04-23 09:26 58.43635 -61.47855 37263 ft 495 kts 73°
2026-04-23 09:26 58.46436 -61.35884 37274 ft 494 kts 73°
2026-04-23 09:27 58.49228 -61.23881 37271 ft 494 kts 73°
2026-04-23 09:27 58.51991 -61.11945 37271 ft 493 kts 73°
2026-04-23 09:28 58.54759 -60.99923 37254 ft 493 kts 74°
2026-04-23 09:28 58.57515 -60.87878 37254 ft 493 kts 74°
2026-04-23 09:29 58.60262 -60.75806 37255 ft 495 kts 74°
2026-04-23 09:29 58.63006 -60.63677 37239 ft 496 kts 74°
2026-04-23 09:30 58.65995 -60.51673 37240 ft 505 kts 66°
2026-04-23 09:30 58.69716 -60.40198 37235 ft 507 kts 64°
2026-04-23 09:31 58.72909 -60.30721 37230 ft 507 kts 64°
2026-04-23 09:31 58.76757 -60.19323 37213 ft 508 kts 64°
2026-04-23 09:32 58.80584 -60.07878 37208 ft 508 kts 64°
2026-04-23 09:32 58.84396 -59.96383 37207 ft 508 kts 64°
2026-04-23 09:33 58.88193 -59.84862 37214 ft 508 kts 64°
2026-04-23 09:33 58.91955 -59.73402 37206 ft 508 kts 64°
2026-04-23 09:34 58.95729 -59.61850 37192 ft 508 kts 64°
2026-04-23 09:34 58.99503 -59.50241 37196 ft 509 kts 64°
2026-04-23 09:35 59.03275 -59.38576 37192 ft 509 kts 65°
2026-04-23 09:35 59.07029 -59.26914 37198 ft 509 kts 65°
2026-04-23 09:36 59.10772 -59.15227 37159 ft 508 kts 65°
2026-04-23 09:36 59.14497 -59.03537 37181 ft 507 kts 65°
2026-04-23 09:37 59.18200 -58.91860 37183 ft 507 kts 65°
2026-04-23 09:37 59.21869 -58.80233 37185 ft 506 kts 65°
2026-04-23 09:38 59.25550 -58.68502 37185 ft 506 kts 65°
2026-04-23 09:38 59.29217 -58.56756 37175 ft 506 kts 65°
2026-04-23 09:39 59.32878 -58.44978 37176 ft 506 kts 65°
2026-04-23 09:39 59.36529 -58.33173 37177 ft 506 kts 65°
2026-04-23 09:40 59.40168 -58.21347 37178 ft 506 kts 65°
2026-04-23 09:40 59.43795 -58.09491 37166 ft 506 kts 65°
2026-04-23 09:41 59.47213 -57.97464 37145 ft 501 kts 71°
2026-04-23 09:41 59.50167 -57.85043 37150 ft 500 kts 71°
2026-04-23 09:42 59.53026 -57.72595 37173 ft 497 kts 72°
2026-04-23 09:42 59.55856 -57.60150 37165 ft 497 kts 72°
2026-04-23 09:43 59.58655 -57.47789 37163 ft 496 kts 72°
2026-04-23 09:43 59.61465 -57.35330 37165 ft 496 kts 72°
2026-04-23 09:44 59.64265 -57.22864 37171 ft 496 kts 72°
2026-04-23 09:44 59.67053 -57.10375 37162 ft 497 kts 72°
2026-04-23 09:45 59.69829 -56.97861 37168 ft 496 kts 72°
2026-04-23 09:45 59.72595 -56.85320 37167 ft 496 kts 72°
2026-04-23 09:46 59.75344 -56.72770 37172 ft 496 kts 72°
2026-04-23 09:46 59.78059 -56.60309 37150 ft 493 kts 72°
2026-04-23 09:47 59.80767 -56.47795 37171 ft 493 kts 72°
2026-04-23 09:47 59.83466 -56.35267 37171 ft 493 kts 72°
2026-04-23 09:48 59.86154 -56.22718 37184 ft 493 kts 72°
2026-04-23 09:48 59.88828 -56.10145 37168 ft 492 kts 72°
2026-04-23 09:49 59.91486 -55.97569 37185 ft 492 kts 72°
2026-04-23 09:49 59.94116 -55.85048 37190 ft 494 kts 72°
2026-04-23 09:50 59.96765 -55.72359 37190 ft 494 kts 72°
2026-04-23 09:50 59.99401 -55.59665 37197 ft 494 kts 72°
2026-04-23 09:51 60.02021 -55.46962 37194 ft 494 kts 72°
2026-04-23 09:51 60.04618 -55.34303 37205 ft 491 kts 72°
2026-04-23 09:52 60.07179 -55.21732 37206 ft 491 kts 72°
2026-04-23 09:52 60.09745 -55.09048 37219 ft 491 kts 72°
2026-04-23 09:53 60.12300 -54.96329 37216 ft 491 kts 72°
2026-04-23 09:53 60.14839 -54.83628 37216 ft 490 kts 72°
2026-04-23 09:54 60.17368 -54.70899 37216 ft 490 kts 72°
2026-04-23 09:54 60.19882 -54.58171 37208 ft 490 kts 72°
2026-04-23 09:55 60.22387 -54.45398 37223 ft 490 kts 72°
2026-04-23 09:55 60.24864 -54.32690 37225 ft 490 kts 72°
2026-04-23 09:56 60.27336 -54.19921 37238 ft 488 kts 72°
2026-04-23 09:56 60.29785 -54.07193 37238 ft 486 kts 72°
2026-04-23 09:57 60.32214 -53.94477 37245 ft 486 kts 72°
2026-04-23 09:57 60.34634 -53.81727 37250 ft 486 kts 72°
2026-04-23 09:58 60.37040 -53.68970 37272 ft 486 kts 72°
2026-04-23 09:58 60.39437 -53.56191 37252 ft 486 kts 72°
2026-04-23 09:59 60.41801 -53.43476 37272 ft 486 kts 72°
2026-04-23 09:59 60.44169 -53.30671 37279 ft 486 kts 72°
2026-04-23 10:00 60.46526 -53.17847 37280 ft 486 kts 73°
2026-04-23 10:00 60.48872 -53.04991 37279 ft 485 kts 72°
2026-04-23 10:01 60.51202 -52.92141 37281 ft 485 kts 72°
2026-04-23 10:01 60.53519 -52.79270 37290 ft 485 kts 72°
2026-04-23 10:02 60.55825 -52.66368 37287 ft 485 kts 73°
2026-04-23 10:02 60.58122 -52.53437 37303 ft 485 kts 73°
2026-04-23 10:03 60.60404 -52.40504 37290 ft 485 kts 73°
2026-04-23 10:03 60.62656 -52.27637 37307 ft 485 kts 73°
2026-04-23 10:04 60.64913 -52.14670 37309 ft 485 kts 73°
2026-04-23 10:04 60.67157 -52.01680 37309 ft 485 kts 73°
2026-04-23 10:05 60.69387 -51.88686 37316 ft 486 kts 73°
2026-04-23 10:05 60.71603 -51.75670 37319 ft 483 kts 73°
2026-04-23 10:06 60.73791 -51.62735 37333 ft 481 kts 73°
2026-04-23 10:06 60.75960 -51.49825 37333 ft 480 kts 73°
2026-04-23 10:07 60.78122 -51.36876 37341 ft 480 kts 73°
2026-04-23 10:07 60.80264 -51.23921 37344 ft 480 kts 73°
2026-04-23 10:08 60.82384 -51.11025 37345 ft 480 kts 73°
2026-04-23 10:08 60.84506 -50.98039 37347 ft 480 kts 73°
2026-04-23 10:09 60.87661 -50.78525 37360 ft 481 kts 74°
2026-04-23 10:09 60.89751 -50.65473 37360 ft 481 kts 74°
2026-04-23 10:10 60.91830 -50.52411 37368 ft 480 kts 73°
2026-04-23 10:10 60.93884 -50.39419 37367 ft 477 kts 73°
2026-04-23 10:11 60.95919 -50.26439 37371 ft 476 kts 74°
2026-04-23 10:11 60.97938 -50.13450 37374 ft 476 kts 74°
2026-04-23 10:12 60.99761 -50.00383 37378 ft 473 kts 81°
2026-04-23 10:12 61.00518 -49.86938 37382 ft 473 kts 86°
2026-04-23 10:13 61.01014 -49.73441 37382 ft 473 kts 88°
2026-04-23 10:13 61.01454 -49.59912 37381 ft 473 kts 88°
2026-04-23 10:14 61.01890 -49.46484 37388 ft 473 kts 87°
2026-04-23 10:14 61.02328 -49.32982 37386 ft 469 kts 86°
2026-04-23 10:15 61.02754 -49.19528 37388 ft 472 kts 86°
2026-04-23 10:15 61.03167 -49.06012 37392 ft 472 kts 86°
2026-04-23 10:16 61.03565 -48.92566 37391 ft 472 kts 86°
2026-04-23 10:16 61.03955 -48.78954 37391 ft 472 kts 87°
2026-04-23 10:17 61.04325 -48.65511 37399 ft 472 kts 87°
2026-04-23 10:17 61.04685 -48.51962 37398 ft 472 kts 87°
2026-04-23 10:18 61.05031 -48.38461 37398 ft 469 kts 86°
2026-04-23 10:18 61.05360 -48.25048 37403 ft 466 kts 86°
2026-04-23 10:19 61.05622 -48.13938 37404 ft 466 kts 86°
2026-04-23 10:19 61.05925 -48.00575 37403 ft 466 kts 87°
2026-04-23 10:20 61.06214 -47.87170 37401 ft 466 kts 87°
2026-04-23 10:20 61.06491 -47.73867 37400 ft 466 kts 87°
2026-04-23 10:21 61.06757 -47.60484 37398 ft 466 kts 87°
2026-04-23 10:21 61.07007 -47.47097 37404 ft 466 kts 86°
2026-04-23 10:22 61.07246 -47.33721 37402 ft 464 kts 87°
2026-04-23 10:22 61.07469 -47.20405 37396 ft 464 kts 87°
2026-04-23 10:23 61.07680 -47.07092 37400 ft 464 kts 87°
2026-04-23 10:23 61.07877 -46.93771 37401 ft 464 kts 87°
2026-04-23 10:24 61.08060 -46.80532 37395 ft 464 kts 87°
2026-04-23 10:24 61.08231 -46.67219 37406 ft 464 kts 87°
2026-04-23 10:25 61.08389 -46.53887 37406 ft 464 kts 88°
2026-04-23 10:25 61.08532 -46.40575 37400 ft 462 kts 87°
2026-04-23 10:26 61.08665 -46.27311 37406 ft 462 kts 87°
2026-04-23 10:26 61.08785 -46.14012 37404 ft 463 kts 87°
2026-04-23 10:27 61.08890 -46.00694 37404 ft 463 kts 87°
2026-04-23 10:27 61.08980 -45.87484 37402 ft 463 kts 88°
2026-04-23 10:28 61.09060 -45.74172 37402 ft 463 kts 88°
2026-04-23 10:28 61.09127 -45.60858 37401 ft 463 kts 88°
2026-04-23 10:29 61.09179 -45.47557 37402 ft 461 kts 87°
2026-04-23 10:29 61.09218 -45.34338 37400 ft 459 kts 87°
2026-04-23 10:30 61.09244 -45.21240 37399 ft 458 kts 88°
2026-04-23 10:30 61.09258 -45.08068 37398 ft 458 kts 88°
2026-04-23 10:31 61.09261 -44.94901 37393 ft 458 kts 88°
2026-04-23 10:31 61.09251 -44.81711 37346 ft 459 kts 88°
2026-04-23 10:32 61.09227 -44.68523 37303 ft 459 kts 88°
2026-04-23 10:32 61.09190 -44.55322 37321 ft 459 kts 88°
2026-04-23 10:33 61.09139 -44.42175 37253 ft 456 kts 87°
2026-04-23 10:33 61.09076 -44.29170 37239 ft 455 kts 88°
2026-04-23 10:34 61.09001 -44.16097 37239 ft 455 kts 88°
2026-04-23 10:34 61.08914 -44.03030 37244 ft 455 kts 88°
2026-04-23 10:35 61.08815 -43.89959 37270 ft 455 kts 88°
2026-04-23 10:35 61.08704 -43.76887 37270 ft 454 kts 88°
2026-04-23 10:36 61.08579 -43.63829 37288 ft 455 kts 88°
2026-04-23 10:36 61.08439 -43.50772 37306 ft 452 kts 88°
2026-04-23 10:37 61.08289 -43.37861 37313 ft 448 kts 88°
2026-04-23 10:37 61.08128 -43.24994 37321 ft 448 kts 88°
2026-04-23 10:38 61.07958 -43.12218 37318 ft 448 kts 88°
2026-04-23 10:38 61.07774 -42.99358 37322 ft 448 kts 88°
2026-04-23 10:39 61.07579 -42.86498 37346 ft 449 kts 88°
2026-04-23 10:39 61.07369 -42.73618 37343 ft 448 kts 88°
2026-04-23 10:40 61.07147 -42.60739 37344 ft 448 kts 88°
2026-04-23 10:40 61.06913 -42.47864 37338 ft 448 kts 88°
2026-04-23 10:41 61.06667 -42.35084 37349 ft 448 kts 89°
2026-04-23 10:41 61.06407 -42.22234 37348 ft 448 kts 89°
2026-04-23 10:42 61.06139 -42.09402 37352 ft 448 kts 89°
2026-04-23 10:42 61.05859 -41.96554 37370 ft 447 kts 89°
2026-04-23 10:43 61.05564 -41.83719 37376 ft 447 kts 89°
2026-04-23 10:43 61.05256 -41.70896 37361 ft 447 kts 89°
2026-04-23 10:44 61.04939 -41.58078 37375 ft 447 kts 89°
2026-04-23 10:44 61.04610 -41.45311 37370 ft 445 kts 89°
2026-04-23 10:45 61.04272 -41.32647 37371 ft 445 kts 89°
2026-04-23 10:45 61.03916 -41.19905 37379 ft 445 kts 89°
2026-04-23 10:46 61.03553 -41.07154 37379 ft 445 kts 89°
2026-04-23 10:46 61.03176 -40.94400 37379 ft 445 kts 89°
2026-04-23 10:47 61.02788 -40.81667 37389 ft 445 kts 89°
2026-04-23 10:47 61.02387 -40.69021 37387 ft 445 kts 89°
2026-04-23 10:48 61.01975 -40.56289 37387 ft 444 kts 89°
2026-04-23 10:48 61.01552 -40.43551 37395 ft 444 kts 89°
2026-04-23 10:49 61.01117 -40.30840 37395 ft 445 kts 89°
2026-04-23 10:49 61.00672 -40.18206 37395 ft 445 kts 89°
2026-04-23 10:50 61.00211 -40.05495 37398 ft 444 kts 90°
2026-04-23 10:50 60.99687 -39.92789 37398 ft 446 kts 92°
2026-04-23 10:51 60.98882 -39.80069 37401 ft 447 kts 93°
2026-04-23 10:51 60.98026 -39.67380 37420 ft 447 kts 93°
2026-04-23 10:52 60.97192 -39.54669 37406 ft 448 kts 93°
2026-04-23 10:52 60.96370 -39.41933 37410 ft 449 kts 93°
2026-04-23 10:53 60.95541 -39.29188 37415 ft 450 kts 93°
2026-04-23 10:53 60.94702 -39.16516 37414 ft 449 kts 93°
2026-04-23 10:54 60.93844 -39.03773 37415 ft 450 kts 93°
2026-04-23 10:54 60.92972 -38.91002 37418 ft 450 kts 94°
2026-04-23 10:55 60.92092 -38.78266 37436 ft 450 kts 94°
2026-04-23 10:55 60.91199 -38.65511 37420 ft 451 kts 94°
2026-04-23 10:56 60.90291 -38.52752 37419 ft 451 kts 94°
2026-04-23 10:56 60.89376 -38.40083 37422 ft 451 kts 94°
2026-04-23 10:57 60.88442 -38.27324 37420 ft 451 kts 94°
2026-04-23 10:57 60.87498 -38.14581 37422 ft 451 kts 95°
2026-04-23 10:58 60.86539 -38.01840 37425 ft 451 kts 95°
2026-04-23 10:58 60.85570 -37.89094 37461 ft 452 kts 95°
2026-04-23 10:59 60.84588 -37.76362 37424 ft 451 kts 95°
2026-04-23 10:59 60.83595 -37.63653 37428 ft 451 kts 95°
2026-04-23 11:00 60.82599 -37.51039 37432 ft 451 kts 95°
2026-04-23 11:00 60.81583 -37.38363 37431 ft 451 kts 95°
2026-04-23 11:01 60.80554 -37.25679 37427 ft 451 kts 95°
2026-04-23 11:01 60.79513 -37.12992 37427 ft 451 kts 95°
2026-04-23 11:02 60.78461 -37.00334 37425 ft 451 kts 96°
2026-04-23 11:02 60.77396 -36.87658 37425 ft 452 kts 96°
2026-04-23 11:03 60.76321 -36.74992 37430 ft 452 kts 96°
2026-04-23 11:03 60.75233 -36.62327 37430 ft 452 kts 96°
2026-04-23 11:04 60.74137 -36.49752 37423 ft 452 kts 96°
2026-04-23 11:04 60.73022 -36.37100 37423 ft 452 kts 96°
2026-04-23 11:05 60.71893 -36.24443 37427 ft 452 kts 96°
2026-04-23 11:05 60.70753 -36.11815 37428 ft 452 kts 97°
2026-04-23 11:06 60.69022 -35.92839 37427 ft 454 kts 97°
2026-04-23 11:07 60.67850 -35.80176 37430 ft 454 kts 97°
2026-04-23 11:07 60.66667 -35.67517 37425 ft 455 kts 97°
2026-04-23 11:08 60.65469 -35.54858 37428 ft 454 kts 97°
2026-04-23 11:08 60.64258 -35.42208 37423 ft 455 kts 98°
2026-04-23 11:09 60.63245 -35.31717 37424 ft 454 kts 98°
2026-04-23 11:09 60.62017 -35.19094 37451 ft 455 kts 98°
2026-04-23 11:10 60.60771 -35.06444 37424 ft 456 kts 98°
2026-04-23 11:10 60.59508 -34.93761 37426 ft 457 kts 98°
2026-04-23 11:11 60.58233 -34.81099 37426 ft 457 kts 98°
2026-04-23 11:11 60.56956 -34.68521 37425 ft 457 kts 99°
2026-04-23 11:12 60.55659 -34.55868 37422 ft 457 kts 99°
2026-04-23 11:12 60.54349 -34.43230 37433 ft 457 kts 99°
2026-04-23 11:13 60.53026 -34.30593 37443 ft 457 kts 99°
2026-04-23 11:13 60.51692 -34.17941 37425 ft 459 kts 99°
2026-04-23 11:14 60.50337 -34.05246 37420 ft 460 kts 100°
2026-04-23 11:14 60.48970 -33.92570 37422 ft 460 kts 100°
2026-04-23 11:15 60.47589 -33.79890 37426 ft 460 kts 100°
2026-04-23 11:15 60.46197 -33.67220 37427 ft 461 kts 100°
2026-04-23 11:16 60.44795 -33.54566 37416 ft 460 kts 100°
2026-04-23 11:16 60.43388 -33.42004 37422 ft 460 kts 100°
2026-04-23 11:17 60.41960 -33.29370 37423 ft 460 kts 100°
2026-04-23 11:17 60.40520 -33.16726 37423 ft 461 kts 101°
2026-04-23 11:18 60.39067 -33.04107 37424 ft 461 kts 101°
2026-04-23 11:18 60.37601 -32.91489 37421 ft 461 kts 101°
2026-04-23 11:19 60.36126 -32.78892 37427 ft 461 kts 101°
2026-04-23 11:19 60.34648 -32.66373 37424 ft 461 kts 101°
2026-04-23 11:20 60.33147 -32.53788 37432 ft 461 kts 102°
2026-04-23 11:20 60.31628 -32.41164 37425 ft 464 kts 102°
2026-04-23 11:21 60.30092 -32.28504 37423 ft 465 kts 102°
2026-04-23 11:21 60.28543 -32.15851 37423 ft 465 kts 102°
2026-04-23 11:22 60.26980 -32.03216 37415 ft 465 kts 102°
2026-04-23 11:22 60.25406 -31.90584 37421 ft 465 kts 102°
2026-04-23 11:23 60.23818 -31.77952 37423 ft 465 kts 102°
2026-04-23 11:23 60.22232 -31.65420 37429 ft 466 kts 103°
2026-04-23 11:24 60.20618 -31.52771 37412 ft 468 kts 103°
2026-04-23 11:24 60.18981 -31.40072 37414 ft 469 kts 103°
2026-04-23 11:25 60.17331 -31.27388 37419 ft 469 kts 103°
2026-04-23 11:25 60.15669 -31.14713 37416 ft 469 kts 103°
2026-04-23 11:26 60.13996 -31.02056 37413 ft 469 kts 103°
2026-04-23 11:26 60.12307 -30.89379 37417 ft 469 kts 103°
2026-04-23 11:27 60.10611 -30.76736 37408 ft 471 kts 104°
2026-04-23 11:27 60.08906 -30.64137 37411 ft 472 kts 104°
2026-04-23 11:28 60.07171 -30.51431 37414 ft 473 kts 104°
2026-04-23 11:28 60.05423 -30.38736 37409 ft 473 kts 104°
2026-04-23 11:29 60.03661 -30.26043 37411 ft 473 kts 104°
2026-04-23 11:29 60.01888 -30.13357 37406 ft 473 kts 104°
2026-04-23 11:30 60.00104 -30.00696 37408 ft 473 kts 104°
2026-04-23 11:30 59.98526 -29.87916 37403 ft 474 kts 101°
2026-04-23 11:31 59.97224 -29.74986 37409 ft 475 kts 101°
2026-04-23 11:31 59.95895 -29.62061 37414 ft 476 kts 101°
2026-04-23 11:32 59.94498 -29.49144 37414 ft 476 kts 102°
2026-04-23 11:32 59.93065 -29.36247 37403 ft 476 kts 102°
2026-04-23 11:33 59.91624 -29.23445 37397 ft 477 kts 102°
2026-04-23 11:33 59.90165 -29.10568 37412 ft 477 kts 102°
2026-04-23 11:34 59.88691 -28.97693 37398 ft 477 kts 102°
2026-04-23 11:34 59.87203 -28.84808 37397 ft 477 kts 102°
2026-04-23 11:35 59.85702 -28.71926 37406 ft 478 kts 102°
2026-04-23 11:35 59.84190 -28.59054 37389 ft 478 kts 103°
2026-04-23 11:36 59.82664 -28.46180 37396 ft 478 kts 103°
2026-04-23 11:36 59.81122 -28.33314 37406 ft 478 kts 103°
2026-04-23 11:37 59.79568 -28.20467 37401 ft 478 kts 103°
2026-04-23 11:37 59.78005 -28.07636 37394 ft 479 kts 103°
2026-04-23 11:38 59.76431 -27.94832 37390 ft 476 kts 103°
2026-04-23 11:38 59.74845 -27.82053 37389 ft 477 kts 104°
2026-04-23 11:39 59.73258 -27.69375 37392 ft 477 kts 104°
2026-04-23 11:39 59.71645 -27.56606 37387 ft 477 kts 104°
2026-04-23 11:40 59.70020 -27.43850 37391 ft 478 kts 104°
2026-04-23 11:40 59.68383 -27.31120 37390 ft 477 kts 104°
2026-04-23 11:41 59.66735 -27.18392 37382 ft 477 kts 104°
2026-04-23 11:41 59.65093 -27.05806 37379 ft 475 kts 105°
2026-04-23 11:42 59.63422 -26.93119 37387 ft 477 kts 105°
2026-04-23 11:42 59.61737 -26.80435 37378 ft 478 kts 105°
2026-04-23 11:43 59.60038 -26.67747 37377 ft 477 kts 105°
2026-04-23 11:43 59.58328 -26.55091 37376 ft 478 kts 105°
2026-04-23 11:44 59.56606 -26.42441 37373 ft 476 kts 105°
2026-04-23 11:44 59.54875 -26.29799 37379 ft 478 kts 106°
2026-04-23 11:45 59.53136 -26.17243 37368 ft 478 kts 106°
2026-04-23 11:45 59.51368 -26.04568 37367 ft 480 kts 107°
2026-04-23 11:46 59.49585 -25.91902 37381 ft 481 kts 107°
2026-04-23 11:46 59.47790 -25.79235 37374 ft 479 kts 107°
2026-04-23 11:47 59.45987 -25.66597 37369 ft 481 kts 107°
2026-04-23 11:47 59.44173 -25.53973 37383 ft 479 kts 107°
2026-04-23 11:48 59.42343 -25.41361 37357 ft 481 kts 108°
2026-04-23 11:48 59.40496 -25.28733 37370 ft 482 kts 108°
2026-04-23 11:49 59.38628 -25.16049 37366 ft 484 kts 108°
2026-04-23 11:49 59.36746 -25.03372 37368 ft 484 kts 108°
2026-04-23 11:50 59.34853 -24.90708 37363 ft 484 kts 108°
2026-04-23 11:50 59.32963 -24.78156 37373 ft 484 kts 108°
2026-04-23 11:51 59.31044 -24.65514 37358 ft 484 kts 108°
2026-04-23 11:51 59.29113 -24.52899 37361 ft 484 kts 108°
2026-04-23 11:52 59.27167 -24.40273 37362 ft 485 kts 109°
2026-04-23 11:52 59.25207 -24.27646 37361 ft 485 kts 109°
2026-04-23 11:53 59.23237 -24.15045 37360 ft 485 kts 109°
2026-04-23 11:53 59.21250 -24.02438 37355 ft 486 kts 109°
2026-04-23 11:54 59.19252 -23.89849 37359 ft 485 kts 109°
2026-04-23 11:54 59.17243 -23.77278 37360 ft 485 kts 109°
2026-04-23 11:55 59.15222 -23.64716 37361 ft 486 kts 109°
2026-04-23 11:55 59.13194 -23.52225 37363 ft 487 kts 110°
2026-04-23 11:56 59.11142 -23.39658 37360 ft 487 kts 110°
2026-04-23 11:56 59.09080 -23.27114 37353 ft 487 kts 110°
2026-04-23 11:57 59.07004 -23.14578 37357 ft 487 kts 110°
2026-04-23 11:57 59.05267 -23.04161 37353 ft 486 kts 110°
2026-04-23 11:58 59.03171 -22.91661 37350 ft 487 kts 110°
2026-04-23 11:58 59.01061 -22.79179 37347 ft 487 kts 110°
2026-04-23 11:59 58.98938 -22.66694 37352 ft 487 kts 110°
2026-04-23 11:59 58.96797 -22.54201 37359 ft 487 kts 111°
2026-04-23 12:00 58.94648 -22.41746 37355 ft 487 kts 111°
2026-04-23 12:00 58.92490 -22.29315 37348 ft 487 kts 111°
2026-04-23 12:01 58.90330 -22.16974 37351 ft 487 kts 111°
2026-04-23 12:01 58.88135 -22.04495 37341 ft 488 kts 111°
2026-04-23 12:02 58.85937 -21.92084 37342 ft 488 kts 111°
2026-04-23 12:02 58.83741 -21.79768 37342 ft 488 kts 111°
2026-04-23 12:03 58.81518 -21.67379 37348 ft 488 kts 111°
2026-04-23 12:03 58.79284 -21.55015 37345 ft 488 kts 111°
2026-04-23 12:04 58.77038 -21.42668 37342 ft 488 kts 112°
2026-04-23 12:04 58.74776 -21.30330 37339 ft 488 kts 112°
2026-04-23 12:05 58.72507 -21.18015 37336 ft 489 kts 112°
2026-04-23 12:05 58.70222 -21.05688 37342 ft 489 kts 112°
2026-04-23 12:06 58.67925 -20.93387 37334 ft 489 kts 112°
2026-04-23 12:06 58.64475 -20.75049 37342 ft 489 kts 112°
2026-04-23 12:07 58.62149 -20.62782 37336 ft 489 kts 113°
2026-04-23 12:07 58.59809 -20.50530 37334 ft 489 kts 113°
2026-04-23 12:08 58.57462 -20.38307 37339 ft 489 kts 113°
2026-04-23 12:08 58.55101 -20.26089 37331 ft 489 kts 113°
2026-04-23 12:09 58.52742 -20.13969 37331 ft 489 kts 113°
2026-04-23 12:09 58.50359 -20.01796 37338 ft 488 kts 113°
2026-04-23 12:10 58.48046 -19.89573 37330 ft 489 kts 112°
2026-04-23 12:10 58.45865 -19.77258 37336 ft 489 kts 111°
2026-04-23 12:11 58.43669 -19.64936 37337 ft 489 kts 112°
2026-04-23 12:11 58.41440 -19.52672 37328 ft 489 kts 112°
2026-04-23 12:12 58.39201 -19.40506 37327 ft 489 kts 112°
2026-04-23 12:12 58.36940 -19.28308 37324 ft 487 kts 112°
2026-04-23 12:13 58.34670 -19.16137 37331 ft 487 kts 112°
2026-04-23 12:13 58.32394 -19.03994 37330 ft 487 kts 113°
2026-04-23 12:14 58.30104 -18.91871 37324 ft 487 kts 113°
2026-04-23 12:14 58.27798 -18.79727 37327 ft 489 kts 113°
2026-04-23 12:15 58.25474 -18.67569 37328 ft 490 kts 113°
2026-04-23 12:15 58.23153 -18.55497 37324 ft 488 kts 114°
2026-04-23 12:16 58.20823 -18.43455 37330 ft 485 kts 114°
2026-04-23 12:16 58.18488 -18.31471 37326 ft 484 kts 114°
2026-04-23 12:17 58.16150 -18.19526 37324 ft 484 kts 114°
2026-04-23 12:17 58.13795 -18.07576 37326 ft 485 kts 114°
2026-04-23 12:18 58.11424 -17.95619 37333 ft 486 kts 114°
2026-04-23 12:18 58.09036 -17.83656 37327 ft 485 kts 114°
2026-04-23 12:19 58.06657 -17.71801 37325 ft 485 kts 114°
2026-04-23 12:19 58.04263 -17.59935 37333 ft 482 kts 114°
2026-04-23 12:20 58.01864 -17.48119 37328 ft 482 kts 115°
2026-04-23 12:20 57.99454 -17.36321 37318 ft 482 kts 115°
2026-04-23 12:21 57.97031 -17.24527 37327 ft 483 kts 115°
2026-04-23 12:21 57.94607 -17.12799 37329 ft 483 kts 115°
2026-04-23 12:22 57.92158 -17.01023 37333 ft 484 kts 115°
2026-04-23 12:22 57.89699 -16.89261 37316 ft 483 kts 115°
2026-04-23 12:23 57.87230 -16.77526 37335 ft 481 kts 115°
2026-04-23 12:23 57.84760 -16.65848 37337 ft 481 kts 115°
2026-04-23 12:24 57.82279 -16.54181 37332 ft 482 kts 115°
2026-04-23 12:24 57.79780 -16.42500 37339 ft 482 kts 115°
2026-04-23 12:25 57.77271 -16.30841 37342 ft 482 kts 115°
2026-04-23 12:25 57.74753 -16.19189 37346 ft 482 kts 116°
2026-04-23 12:26 57.72223 -16.07569 37339 ft 482 kts 116°
2026-04-23 12:26 57.69683 -15.95963 37339 ft 482 kts 116°
2026-04-23 12:27 57.67145 -15.84443 37339 ft 483 kts 116°
2026-04-23 12:27 57.64582 -15.72853 37335 ft 483 kts 116°
2026-04-23 12:28 57.62005 -15.61265 37357 ft 483 kts 116°
2026-04-23 12:28 57.59415 -15.49687 37340 ft 483 kts 116°
2026-04-23 12:29 57.56813 -15.38122 37339 ft 483 kts 116°
2026-04-23 12:29 57.54203 -15.26582 37351 ft 483 kts 116°
2026-04-23 12:30 57.51587 -15.15078 37341 ft 482 kts 117°
2026-04-23 12:30 57.48979 -15.03675 37349 ft 483 kts 117°
2026-04-23 12:31 57.46342 -14.92214 37352 ft 482 kts 117°
2026-04-23 12:31 57.43694 -14.80756 37352 ft 482 kts 117°
2026-04-23 12:32 57.41038 -14.69320 37357 ft 482 kts 117°
2026-04-23 12:32 57.38370 -14.57902 37357 ft 482 kts 117°
2026-04-23 12:33 57.35691 -14.46502 37351 ft 482 kts 117°
2026-04-23 12:33 57.33011 -14.35142 37360 ft 481 kts 117°
2026-04-23 12:34 57.30315 -14.23782 37357 ft 482 kts 117°
2026-04-23 12:34 57.27608 -14.12438 37362 ft 482 kts 117°
2026-04-23 12:35 57.24893 -14.01116 37357 ft 482 kts 118°
2026-04-23 12:35 57.22169 -13.89820 37357 ft 481 kts 118°
2026-04-23 12:36 57.19451 -13.78607 37365 ft 481 kts 118°
2026-04-23 12:36 57.16708 -13.67346 37357 ft 482 kts 118°
2026-04-23 12:37 57.13957 -13.56104 37368 ft 480 kts 118°
2026-04-23 12:37 57.11200 -13.44909 37369 ft 480 kts 118°
2026-04-23 12:38 57.08434 -13.33730 37373 ft 480 kts 118°
2026-04-23 12:38 57.05656 -13.22554 37373 ft 480 kts 118°
2026-04-23 12:39 57.02876 -13.11485 37368 ft 479 kts 120°
2026-04-23 12:39 56.99230 -13.01445 37373 ft 471 kts 136°
2026-04-23 12:40 56.94201 -12.93960 37379 ft 463 kts 151°
2026-04-23 12:40 56.88633 -12.88094 37374 ft 461 kts 154°
2026-04-23 12:41 56.83188 -12.81841 37374 ft 465 kts 144°
2026-04-23 12:41 56.78826 -12.73052 37373 ft 474 kts 126°
2026-04-23 12:42 56.75671 -12.62431 37378 ft 478 kts 120°
2026-04-23 12:42 56.72760 -12.51544 37375 ft 477 kts 120°
2026-04-23 12:43 56.69851 -12.40708 37378 ft 475 kts 120°
2026-04-23 12:43 56.66906 -12.29957 37381 ft 475 kts 120°
2026-04-23 12:44 56.63933 -12.19238 37376 ft 475 kts 120°
2026-04-23 12:44 56.60964 -12.08598 37389 ft 475 kts 121°
2026-04-23 12:45 56.57973 -11.97925 37380 ft 475 kts 121°
2026-04-23 12:45 56.54972 -11.87254 37378 ft 475 kts 121°
2026-04-23 12:46 56.51966 -11.76606 37383 ft 473 kts 121°
2026-04-23 12:46 56.49470 -11.67808 37380 ft 472 kts 121°
2026-04-23 12:47 56.46458 -11.57239 37373 ft 473 kts 121°
2026-04-23 12:47 56.43426 -11.46652 37385 ft 474 kts 121°
2026-04-23 12:48 56.40383 -11.36070 37382 ft 474 kts 121°
2026-04-23 12:48 56.37332 -11.25503 37387 ft 474 kts 121°
2026-04-23 12:49 56.34269 -11.14951 37390 ft 474 kts 121°
2026-04-23 12:49 56.31207 -11.04442 37390 ft 473 kts 121°
2026-04-23 12:50 56.28165 -10.94048 37367 ft 472 kts 121°
2026-04-23 12:50 56.25086 -10.83585 37388 ft 473 kts 121°
2026-04-23 12:51 56.21998 -10.73137 37395 ft 474 kts 121°
2026-04-23 12:51 56.18894 -10.62678 37395 ft 474 kts 121°
2026-04-23 12:52 56.15784 -10.52241 37398 ft 474 kts 122°
2026-04-23 12:52 56.12665 -10.41825 37396 ft 473 kts 122°
2026-04-23 12:53 56.09548 -10.31459 37397 ft 472 kts 122°
2026-04-23 12:53 56.06424 -10.21123 37401 ft 473 kts 122°
2026-04-23 12:54 56.03302 -10.10830 37400 ft 474 kts 122°
2026-04-23 12:54 56.00146 -10.00473 37403 ft 474 kts 122°
2026-04-23 12:55 55.96892 -9.90254 37406 ft 473 kts 124°
2026-04-23 12:55 55.93491 -9.80199 37405 ft 473 kts 124°
2026-04-23 12:56 55.90091 -9.70157 37415 ft 472 kts 124°
2026-04-23 12:56 55.86715 -9.60131 37401 ft 472 kts 124°
2026-04-23 12:57 55.83333 -9.50090 37409 ft 473 kts 124°
2026-04-23 12:57 55.79959 -9.40101 37412 ft 474 kts 124°
2026-04-23 12:58 55.76558 -9.30069 37414 ft 474 kts 124°
2026-04-23 12:58 55.73149 -9.20067 37415 ft 474 kts 124°
2026-04-23 12:59 55.69728 -9.10070 37413 ft 474 kts 124°
2026-04-23 12:59 55.66294 -9.00086 37414 ft 473 kts 124°
2026-04-23 13:00 55.62853 -8.90116 37418 ft 476 kts 124°
2026-04-23 13:00 55.59407 -8.80178 37420 ft 477 kts 124°
2026-04-23 13:01 55.55928 -8.70179 37420 ft 477 kts 124°
2026-04-23 13:01 55.52445 -8.60207 37421 ft 477 kts 124°
2026-04-23 13:02 55.48948 -8.50238 37418 ft 477 kts 124°
2026-04-23 13:02 55.45452 -8.40314 37416 ft 476 kts 124°
2026-04-23 13:03 55.41953 -8.30422 37415 ft 476 kts 124°
2026-04-23 13:03 55.38432 -8.20506 37404 ft 479 kts 124°
2026-04-23 13:04 55.34893 -8.10579 37411 ft 479 kts 124°
2026-04-23 13:04 55.31348 -8.00674 37405 ft 479 kts 124°
2026-04-23 13:05 55.27796 -7.90795 37431 ft 479 kts 124°
2026-04-23 13:05 55.24257 -7.80986 37427 ft 478 kts 124°
2026-04-23 13:06 55.18904 -7.66230 37424 ft 479 kts 124°
2026-04-23 13:07 55.15319 -7.56395 37421 ft 480 kts 124°
2026-04-23 13:07 55.11723 -7.46565 37428 ft 480 kts 124°
2026-04-23 13:08 55.08115 -7.36748 37423 ft 480 kts 125°
2026-04-23 13:08 55.04498 -7.26949 37425 ft 480 kts 125°
2026-04-23 13:09 55.00879 -7.17181 37429 ft 480 kts 125°
2026-04-23 13:09 54.97272 -7.07478 37423 ft 480 kts 125°
2026-04-23 13:10 54.93626 -6.97713 37432 ft 482 kts 125°
2026-04-23 13:10 54.89961 -6.87932 37435 ft 483 kts 124°
2026-04-23 13:11 54.86290 -6.78170 37437 ft 483 kts 125°
2026-04-23 13:11 54.82609 -6.68432 37451 ft 482 kts 125°
2026-04-23 13:12 54.78921 -6.58713 37452 ft 482 kts 125°
2026-04-23 13:12 54.75228 -6.49015 37450 ft 482 kts 125°
2026-04-23 13:13 54.71548 -6.39386 37456 ft 484 kts 124°
2026-04-23 13:13 54.67823 -6.29682 37454 ft 484 kts 124°
2026-04-23 13:14 54.64093 -6.20002 37454 ft 484 kts 124°
2026-04-23 13:14 54.60355 -6.10334 37454 ft 484 kts 124°
2026-04-23 13:15 54.56606 -6.00679 37454 ft 484 kts 125°
2026-04-23 13:15 54.52849 -5.91039 37455 ft 484 kts 125°
2026-04-23 13:16 54.49083 -5.81417 37459 ft 485 kts 125°
2026-04-23 13:16 54.45334 -5.71879 37463 ft 485 kts 125°
2026-04-23 13:17 54.41556 -5.62296 37474 ft 485 kts 125°
2026-04-23 13:17 54.37768 -5.52720 37474 ft 485 kts 126°
2026-04-23 13:18 54.33965 -5.43154 37476 ft 485 kts 125°
2026-04-23 13:18 54.30158 -5.33609 37479 ft 485 kts 126°
2026-04-23 13:19 54.26324 -5.24037 37477 ft 490 kts 125°
2026-04-23 13:19 54.22460 -5.14432 37468 ft 490 kts 125°
2026-04-23 13:20 54.18591 -5.04841 37466 ft 489 kts 125°
2026-04-23 13:20 54.14715 -4.95267 37468 ft 490 kts 125°
2026-04-23 13:21 54.10823 -4.85699 37464 ft 490 kts 125°
2026-04-23 13:21 54.06929 -4.76162 37466 ft 490 kts 125°
2026-04-23 13:22 54.03019 -4.66617 37455 ft 494 kts 125°
2026-04-23 13:22 53.99097 -4.57074 37454 ft 496 kts 125°
2026-04-23 13:23 53.95137 -4.47487 37456 ft 494 kts 125°
2026-04-23 13:23 53.91183 -4.37947 37460 ft 495 kts 125°
2026-04-23 13:24 53.87221 -4.28346 37460 ft 497 kts 124°
2026-04-23 13:24 53.83291 -4.18714 37455 ft 496 kts 124°
2026-04-23 13:25 53.79373 -4.09135 37460 ft 494 kts 124°
2026-04-23 13:25 53.75441 -3.99607 37450 ft 494 kts 124°
2026-04-23 13:26 53.71507 -3.90108 37457 ft 493 kts 124°
2026-04-23 13:26 53.67568 -3.80640 37448 ft 493 kts 124°
2026-04-23 13:27 53.63637 -3.71223 37451 ft 495 kts 124°
2026-04-23 13:27 53.59665 -3.61733 37462 ft 495 kts 124°
2026-04-23 13:28 53.55689 -3.52279 37453 ft 494 kts 124°
2026-04-23 13:28 53.51709 -3.42862 37457 ft 495 kts 124°
2026-04-23 13:29 53.47715 -3.33437 37453 ft 495 kts 124°
2026-04-23 13:29 53.43718 -3.24043 37454 ft 494 kts 124°
2026-04-23 13:30 53.39717 -3.14670 37454 ft 494 kts 124°
2026-04-23 13:30 53.35690 -3.05397 37459 ft 495 kts 126°
2026-04-23 13:31 53.31550 -2.96174 37455 ft 495 kts 126°
2026-04-23 13:31 53.27406 -2.86974 37455 ft 496 kts 126°
2026-04-23 13:32 53.23268 -2.77758 37460 ft 496 kts 126°
2026-04-23 13:32 53.19120 -2.68544 37462 ft 496 kts 126°
2026-04-23 13:33 53.14970 -2.59362 37465 ft 496 kts 126°
2026-04-23 13:33 53.10930 -2.50060 37465 ft 495 kts 122°
2026-04-23 13:34 53.07101 -2.40555 37468 ft 494 kts 123°
2026-04-23 13:34 53.03069 -2.31324 37460 ft 495 kts 133°
2026-04-23 13:35 52.98504 -2.25582 37317 ft 494 kts 147°
2026-04-23 13:35 52.95576 -2.22535 37057 ft 498 kts 147°
2026-04-23 13:35 52.92626 -2.19481 36801 ft 500 kts 147°
2026-04-23 13:35 52.88718 -2.15421 36450 ft 501 kts 147°
2026-04-23 13:36 52.86730 -2.13353 36126 ft 498 kts 147°
2026-04-23 13:36 52.83805 -2.10310 35469 ft 496 kts 147°
2026-04-23 13:36 52.80880 -2.07268 34708 ft 497 kts 147°
2026-04-23 13:36 52.77951 -2.04225 33864 ft 498 kts 147°
2026-04-23 13:37 52.75019 -2.01183 33035 ft 498 kts 147°
2026-04-23 13:37 52.72080 -1.98139 32228 ft 498 kts 146°
2026-04-23 13:37 52.69144 -1.95102 31380 ft 499 kts 146°
2026-04-23 13:37 52.66200 -1.92060 30532 ft 500 kts 146°
2026-04-23 13:38 52.63246 -1.89012 29536 ft 501 kts 146°
2026-04-23 13:38 52.60301 -1.85979 28817 ft 497 kts 146°
2026-04-23 13:38 52.57392 -1.82990 28222 ft 490 kts 146°
2026-04-23 13:38 52.54517 -1.80041 27608 ft 484 kts 146°
2026-04-23 13:39 52.51684 -1.77138 27009 ft 478 kts 146°
2026-04-23 13:39 52.48876 -1.74265 26421 ft 473 kts 146°
2026-04-23 13:39 52.46093 -1.71422 25812 ft 468 kts 146°
2026-04-23 13:39 52.43341 -1.68615 25219 ft 463 kts 146°
2026-04-23 13:40 52.40619 -1.65843 24632 ft 459 kts 146°
2026-04-23 13:40 52.37963 -1.63141 24072 ft 455 kts 146°
2026-04-23 13:40 52.35279 -1.60415 23408 ft 450 kts 146°
2026-04-23 13:40 52.32642 -1.57740 22821 ft 443 kts 146°
2026-04-23 13:41 52.30037 -1.55102 22295 ft 437 kts 146°
2026-04-23 13:41 52.27466 -1.52502 21735 ft 431 kts 146°
2026-04-23 13:41 52.24926 -1.49939 21182 ft 426 kts 146°
2026-04-23 13:41 52.22436 -1.47398 20618 ft 419 kts 144°
2026-04-23 13:42 52.20141 -1.44539 20176 ft 414 kts 137°
2026-04-23 13:42 52.17932 -1.41467 19773 ft 419 kts 137°
2026-04-23 13:42 52.15723 -1.38367 19343 ft 419 kts 137°
2026-04-23 13:42 52.13520 -1.35284 18923 ft 415 kts 137°
2026-04-23 13:43 52.11341 -1.32242 18476 ft 412 kts 137°
2026-04-23 13:43 52.09175 -1.29224 18038 ft 408 kts 137°
2026-04-23 13:43 52.07023 -1.26232 17627 ft 407 kts 137°
2026-04-23 13:43 52.04873 -1.23246 17199 ft 405 kts 137°
2026-04-23 13:44 52.02743 -1.20294 16737 ft 401 kts 137°
2026-04-23 13:44 52.00629 -1.17370 16319 ft 398 kts 137°
2026-04-23 13:44 51.98525 -1.14460 15932 ft 396 kts 137°
2026-04-23 13:44 51.96451 -1.11596 15663 ft 385 kts 137°
2026-04-23 13:45 51.94434 -1.08811 15204 ft 380 kts 137°
2026-04-23 13:45 51.92426 -1.06042 14597 ft 379 kts 138°
2026-04-23 13:45 51.90421 -1.03284 14064 ft 377 kts 138°
2026-04-23 13:45 51.88455 -1.00585 13537 ft 374 kts 137°
2026-04-23 13:46 51.86479 -0.97876 13018 ft 369 kts 137°
2026-04-23 13:46 51.84798 -0.94830 12576 ft 363 kts 120°
2026-04-23 13:46 51.83625 -0.91225 12109 ft 363 kts 114°
2026-04-23 13:46 51.82551 -0.87548 11651 ft 360 kts 114°
2026-04-23 13:47 51.81476 -0.83910 11180 ft 358 kts 114°
2026-04-23 13:47 51.80390 -0.80292 10724 ft 358 kts 115°
2026-04-23 13:47 51.79298 -0.76695 10270 ft 353 kts 115°
2026-04-23 13:47 51.78237 -0.73223 9983 ft 337 kts 115°
2026-04-23 13:48 51.77221 -0.69910 9714 ft 321 kts 115°
2026-04-23 13:48 51.76265 -0.66799 9351 ft 301 kts 115°
2026-04-23 13:48 51.75353 -0.63837 9140 ft 289 kts 115°
2026-04-23 13:48 51.74219 -0.61251 8904 ft 279 kts 136°
2026-04-23 13:49 51.72546 -0.59732 8754 ft 279 kts 161°
2026-04-23 13:49 51.70616 -0.59571 8496 ft 283 kts 187°
2026-04-23 13:49 51.68801 -0.60835 8438 ft 289 kts 214°
2026-04-23 13:49 51.67380 -0.63141 8436 ft 293 kts 229°
2026-04-23 13:50 51.66120 -0.65727 8428 ft 294 kts 230°
2026-04-23 13:50 51.64877 -0.68363 8428 ft 296 kts 231°
2026-04-23 13:50 51.63638 -0.70994 8413 ft 292 kts 231°
2026-04-23 13:50 51.62421 -0.73580 8053 ft 289 kts 231°
2026-04-23 13:51 51.61207 -0.76158 7563 ft 290 kts 231°
2026-04-23 13:51 51.59996 -0.78745 7134 ft 289 kts 230°
2026-04-23 13:51 51.58800 -0.81328 6718 ft 286 kts 231°
2026-04-23 13:51 51.57608 -0.83891 6306 ft 284 kts 231°
2026-04-23 13:52 51.56265 -0.86137 6005 ft 273 kts 211°
2026-04-23 13:52 51.54572 -0.87240 5789 ft 256 kts 186°
2026-04-23 13:52 51.52859 -0.87610 5658 ft 242 kts 181°
2026-04-23 13:52 51.51240 -0.87588 5444 ft 225 kts 161°
2026-04-23 13:53 51.49930 -0.86419 5157 ft 213 kts 132°
2026-04-23 13:53 51.49014 -0.84563 4648 ft 218 kts 122°
2026-04-23 13:53 51.48184 -0.82481 4147 ft 224 kts 119°
2026-04-23 13:53 51.47707 -0.80143 3864 ft 218 kts 98°
2026-04-23 13:54 51.47648 -0.77757 3657 ft 211 kts 90°
2026-04-23 13:54 51.47667 -0.75425 3426 ft 207 kts 90°
2026-04-23 13:54 51.47665 -0.73142 3140 ft 202 kts 90°
2026-04-23 13:54 51.47670 -0.70913 2883 ft 197 kts 90°
2026-04-23 13:55 51.47677 -0.68737 2622 ft 192 kts 90°
2026-04-23 13:55 51.47682 -0.66664 2333 ft 178 kts 89°
2026-04-23 13:55 51.47688 -0.64753 2103 ft 164 kts 89°
2026-04-23 13:55 51.47693 -0.62995 1861 ft 153 kts 89°
2026-04-23 13:56 51.47702 -0.61381 1708 ft 137 kts 88°
2026-04-23 13:56 51.47706 -0.59906 1509 ft 127 kts 88°
2026-04-23 13:56 51.47710 -0.58486 1345 ft 127 kts 88°
2026-04-23 13:56 51.47717 -0.57093 1176 ft 124 kts 88°
2026-04-23 13:57 51.47723 -0.55714 1002 ft 124 kts 90°
2026-04-23 13:57 51.47727 -0.54322 825 ft 125 kts 91°
2026-04-23 13:57 51.47728 -0.52935 674 ft 122 kts 90°
2026-04-23 13:57 51.47748 -0.51599 487 ft 118 kts 92°
2026-04-23 13:58 51.47757 -0.50247 321 ft 123 kts 92°
2026-04-23 13:58 51.47755 -0.48877 167 ft 124 kts 93°
2026-04-23 13:58 51.47754 -0.47521 94 ft 112 kts 90°
2026-04-23 13:58 51.47758 -0.46520 98 ft 70 kts 89°
2026-04-23 13:59 51.47759 -0.45847 94 ft 51 kts 90°
2026-04-23 13:59 51.47742 -0.45518 92 ft 16 kts 125°
2026-04-23 13:59 51.47663 -0.45467 95 ft 7 kts 178°
2026-04-23 13:59 51.47642 -0.45468 92 ft 0 kts 181°
2026-04-23 14:00 51.47637 -0.45467 92 ft 2 kts 180°
2026-04-23 14:00 51.47628 -0.45467 94 ft 0 kts 180°
2026-04-23 14:00 51.47621 -0.45467 95 ft 3 kts 180°
2026-04-23 14:00 51.47586 -0.45467 92 ft 7 kts 179°
2026-04-23 14:01 51.47530 -0.45478 96 ft 8 kts 209°
2026-04-23 14:01 51.47508 -0.45576 95 ft 11 kts 267°
2026-04-23 14:01 51.47512 -0.45723 96 ft 14 kts 277°
2026-04-23 14:01 51.47517 -0.45902 94 ft 15 kts 271°
2026-04-23 14:02 51.47518 -0.46065 95 ft 17 kts 269°
2026-04-23 14:02 51.47516 -0.46268 94 ft 14 kts 270°
2026-04-23 14:02 51.47516 -0.46418 92 ft 15 kts 269°
2026-04-23 14:02 51.47514 -0.46607 95 ft 16 kts 269°
2026-04-23 14:03 51.47494 -0.46727 95 ft 10 kts 225°
2026-04-23 14:03 51.47419 -0.46738 95 ft 13 kts 170°
2026-04-23 14:03 51.47322 -0.46727 92 ft 15 kts 180°
2026-04-23 14:03 51.47246 -0.46674 92 ft 12 kts 113°
2026-04-23 14:04 51.47239 -0.46522 92 ft 15 kts 90°
2026-04-23 14:04 51.47219 -0.46408 92 ft 1 kts 134°
2026-04-23 14:04 51.47216 -0.46404 92 ft 0 kts 139°
2026-04-23 14:04 51.47212 -0.46400 92 ft 2 kts 142°
2026-04-23 14:05 51.47200 -0.46393 92 ft 1 kts 173°